Time,TemperatureF,DewpointF,PressureIn,WindDirection,WindDirectionDegrees,WindSpeedMPH,WindSpeedGustMPH,Humidity,HourlyPrecipIn,Conditions,Clouds,dailyrainin,SoftwareType,DateUTC
2013-04-28 00:00:00,59.1,55.2,30.02,South,189,0.0,0.0,87,0.00,,,0.00,Wunderground v.1.15,2013-04-28 07:00:00,
2013-04-28 00:04:00,59.1,55.2,30.01,South,189,0.0,0.0,87,0.00,,,0.00,Wunderground v.1.15,2013-04-28 07:04:00,
2013-04-28 00:06:00,59.1,55.2,30.02,South,189,0.0,0.0,87,0.00,,,0.00,Wunderground v.1.15,2013-04-28 07:06:00,
2013-04-28 00:08:00,59.1,55.2,30.02,South,189,0.0,0.0,87,0.00,,,0.00,Wunderground v.1.15,2013-04-28 07:08:00,
2013-04-28 00:10:00,59.1,55.2,30.02,South,189,0.0,0.0,87,0.00,,,0.00,Wunderground v.1.15,2013-04-28 07:10:00,
2013-04-28 00:14:00,59.1,55.2,30.02,South,187,0.0,0.0,87,0.00,,,0.00,Wunderground v.1.15,2013-04-28 07:14:00,
2013-04-28 00:18:00,59.1,55.2,30.02,ESE,107,0.0,1.0,87,0.00,,,0.00,Wunderground v.1.15,2013-04-28 07:18:00,
2013-04-28 00:20:00,59.2,55.3,30.02,East,99,1.0,1.0,87,0.00,,,0.00,Wunderground v.1.15,2013-04-28 07:20:00,
2013-04-28 00:22:00,59.1,55.2,30.02,East,99,1.0,1.0,87,0.00,,,0.00,Wunderground v.1.15,2013-04-28 07:22:00,
2013-04-28 00:24:00,59.1,55.2,30.01,East,99,1.0,1.0,87,0.00,,,0.00,Wunderground v.1.15,2013-04-28 07:24:00,
2013-04-28 00:28:00,59.1,55.2,30.01,East,99,1.0,1.0,87,0.00,,,0.00,Wunderground v.1.15,2013-04-28 07:28:00,
2013-04-28 00:30:00,59.1,55.2,30.01,East,99,0.0,0.0,87,0.00,,,0.00,Wunderground v.1.15,2013-04-28 07:30:00,
2013-04-28 00:32:00,59.0,55.1,30.01,East,99,0.0,0.0,87,0.00,,,0.00,Wunderground v.1.15,2013-04-28 07:32:00,
2013-04-28 00:38:00,59.0,55.1,30.01,East,101,0.0,0.0,87,0.00,,,0.00,Wunderground v.1.15,2013-04-28 07:38:00,
2013-04-28 00:40:00,59.0,55.1,30.01,East,101,0.0,0.0,87,0.00,,,0.00,Wunderground v.1.15,2013-04-28 07:40:00,
2013-04-28 00:42:00,59.0,55.1,30.01,SSE,153,0.0,0.0,87,0.00,,,0.00,Wunderground v.1.15,2013-04-28 07:42:00,
2013-04-28 00:46:00,59.0,55.8,30.01,South,188,0.0,1.0,89,0.00,,,0.00,Wunderground v.1.15,2013-04-28 07:46:00,
2013-04-28 00:48:00,59.0,55.8,30.01,South,188,0.0,1.0,89,0.00,,,0.00,Wunderground v.1.15,2013-04-28 07:48:00,
2013-04-28 00:52:00,59.0,55.8,30.01,SSE,152,1.0,2.0,89,0.00,,,0.00,Wunderground v.1.15,2013-04-28 07:52:00,
2013-04-28 00:56:00,58.9,55.0,30.01,East,95,1.0,2.0,87,0.00,,,0.00,Wunderground v.1.15,2013-04-28 07:56:00,
2013-04-28 00:58:00,59.0,55.1,30.01,SSE,168,1.0,2.0,87,0.00,,,0.00,Wunderground v.1.15,2013-04-28 07:58:00,
2013-04-28 01:00:00,59.0,55.1,30.01,SSE,158,0.0,-999.0,87,0.00,,,0.00,Wunderground v.1.15,2013-04-28 08:00:00,
2013-04-28 01:02:00,58.9,55.0,30.00,SSE,166,0.0,1.0,87,0.00,,,0.00,Wunderground v.1.15,2013-04-28 08:02:00,
2013-04-28 01:05:00,59.0,55.1,30.01,SSE,158,0.0,-999.0,87,0.00,,,0.00,Wunderground v.1.15,2013-04-28 08:05:00,
2013-04-28 01:06:00,59.0,55.1,30.00,SSE,166,0.0,1.0,87,0.00,,,0.00,Wunderground v.1.15,2013-04-28 08:06:00,
2013-04-28 01:08:00,59.0,55.1,30.01,SSE,166,0.0,1.0,87,0.00,,,0.00,Wunderground v.1.15,2013-04-28 08:08:00,
2013-04-28 01:10:00,59.0,55.1,30.01,SSE,166,0.0,2.0,87,0.00,,,0.00,Wunderground v.1.15,2013-04-28 08:10:00,
2013-04-28 01:12:00,59.0,55.1,30.01,SSE,166,0.0,2.0,87,0.00,,,0.00,Wunderground v.1.15,2013-04-28 08:12:00,
2013-04-28 01:14:00,59.0,55.8,30.00,SSE,166,0.0,2.0,89,0.00,,,0.00,Wunderground v.1.15,2013-04-28 08:14:00,
2013-04-28 01:15:00,59.1,55.2,30.00,SSE,158,0.0,-999.0,87,0.00,,,0.00,Wunderground v.1.15,2013-04-28 08:15:00,
2013-04-28 01:18:00,59.0,55.1,30.00,SSE,166,0.0,2.0,87,0.00,,,0.00,Wunderground v.1.15,2013-04-28 08:18:00,
2013-04-28 01:20:00,59.1,55.2,30.00,SSE,166,0.0,0.0,87,0.00,,,0.00,Wunderground v.1.15,2013-04-28 08:20:00,
2013-04-28 01:25:00,59.2,55.3,30.00,SSE,158,0.0,-999.0,87,0.00,,,0.00,Wunderground v.1.15,2013-04-28 08:25:00,
2013-04-28 01:26:00,59.1,55.2,30.00,SSE,165,0.0,0.0,87,0.00,,,0.00,Wunderground v.1.15,2013-04-28 08:26:00,
2013-04-28 01:28:00,59.2,55.3,30.00,SSE,166,0.0,0.0,87,0.00,,,0.00,Wunderground v.1.15,2013-04-28 08:28:00,
2013-04-28 01:30:00,59.2,55.3,30.00,SSE,166,1.0,1.0,87,0.00,,,0.00,Wunderground v.1.15,2013-04-28 08:30:00,
2013-04-28 01:32:00,59.2,55.3,30.00,SSE,166,1.0,1.0,87,0.00,,,0.00,Wunderground v.1.15,2013-04-28 08:32:00,
2013-04-28 01:34:00,59.2,55.3,30.00,SSE,166,1.0,1.0,87,0.00,,,0.00,Wunderground v.1.15,2013-04-28 08:34:00,
2013-04-28 01:35:00,59.2,55.0,30.00,SSE,158,0.0,-999.0,86,0.00,,,0.00,Wunderground v.1.15,2013-04-28 08:35:00,
2013-04-28 01:40:00,59.2,55.0,30.00,SSE,166,0.0,0.0,86,0.00,,,0.00,Wunderground v.1.15,2013-04-28 08:40:00,
2013-04-28 01:42:00,59.2,55.0,30.00,SSE,166,0.0,0.0,86,0.00,,,0.00,Wunderground v.1.15,2013-04-28 08:42:00,
2013-04-28 01:44:00,59.2,55.0,30.00,SSE,165,0.0,0.0,86,0.00,,,0.00,Wunderground v.1.15,2013-04-28 08:44:00,
2013-04-28 01:45:00,59.3,55.1,30.00,SSE,158,0.0,-999.0,86,0.00,,,0.00,Wunderground v.1.15,2013-04-28 08:45:00,
2013-04-28 01:48:00,59.2,55.0,30.00,SSE,165,0.0,2.0,86,0.00,,,0.00,Wunderground v.1.15,2013-04-28 08:48:00,
2013-04-28 01:50:00,59.3,55.1,30.00,SSE,165,0.0,0.0,86,0.00,,,0.00,Wunderground v.1.15,2013-04-28 08:50:00,
2013-04-28 01:54:00,59.3,55.1,30.00,SSE,165,0.0,0.0,86,0.00,,,0.00,Wunderground v.1.15,2013-04-28 08:54:00,
2013-04-28 01:55:00,59.5,55.3,30.00,SE,135,0.0,-999.0,86,0.00,,,0.00,Wunderground v.1.15,2013-04-28 08:55:00,
2013-04-28 01:56:00,59.4,55.2,30.00,SSE,165,0.0,0.0,86,0.00,,,0.00,Wunderground v.1.15,2013-04-28 08:56:00,
2013-04-28 02:00:00,59.5,55.3,30.00,SE,135,0.0,-999.0,86,0.00,,,0.00,Wunderground v.1.15,2013-04-28 09:00:00,
2013-04-28 02:02:00,59.5,55.3,30.00,SE,144,1.0,1.0,86,0.00,,,0.00,Wunderground v.1.15,2013-04-28 09:02:00,
2013-04-28 02:04:00,59.5,55.3,30.00,SE,144,1.0,1.0,86,0.00,,,0.00,Wunderground v.1.15,2013-04-28 09:04:00,
2013-04-28 02:05:00,59.6,55.4,30.00,SE,135,0.0,-999.0,86,0.00,,,0.00,Wunderground v.1.15,2013-04-28 09:05:00,
2013-04-28 02:08:00,59.6,55.4,30.00,SE,144,1.0,2.0,86,0.00,,,0.00,Wunderground v.1.15,2013-04-28 09:08:00,
2013-04-28 02:10:00,59.7,55.5,30.00,SE,144,0.0,0.0,86,0.00,,,0.00,Wunderground v.1.15,2013-04-28 09:10:00,
2013-04-28 02:14:00,59.7,55.5,30.00,SE,144,0.0,0.0,86,0.00,,,0.00,Wunderground v.1.15,2013-04-28 09:14:00,
2013-04-28 02:15:00,59.7,55.5,30.00,SE,135,0.0,-999.0,86,0.00,,,0.00,Wunderground v.1.15,2013-04-28 09:15:00,
2013-04-28 02:18:00,59.7,55.5,30.00,SE,144,0.0,0.0,86,0.00,,,0.00,Wunderground v.1.15,2013-04-28 09:18:00,
2013-04-28 02:20:00,59.7,55.5,29.99,SE,144,0.0,0.0,86,0.00,,,0.00,Wunderground v.1.15,2013-04-28 09:20:00,
2013-04-28 02:24:00,59.8,55.6,30.00,SE,144,0.0,0.0,86,0.00,,,0.00,Wunderground v.1.15,2013-04-28 09:24:00,
2013-04-28 02:25:00,59.8,55.6,29.99,SE,135,0.0,-999.0,86,0.00,,,0.00,Wunderground v.1.15,2013-04-28 09:25:00,
2013-04-28 02:26:00,59.8,55.6,29.99,SE,144,0.0,1.0,86,0.00,,,0.00,Wunderground v.1.15,2013-04-28 09:26:00,
2013-04-28 02:30:00,59.8,55.6,29.99,SE,144,0.0,0.0,86,0.00,,,0.00,Wunderground v.1.15,2013-04-28 09:30:00,
2013-04-28 02:32:00,59.9,55.7,29.99,SE,144,0.0,0.0,86,0.00,,,0.00,Wunderground v.1.15,2013-04-28 09:32:00,
2013-04-28 02:35:00,59.9,55.7,29.99,SE,135,0.0,-999.0,86,0.00,,,0.00,Wunderground v.1.15,2013-04-28 09:35:00,
2013-04-28 02:36:00,59.9,55.7,29.99,SE,144,0.0,0.0,86,0.00,,,0.00,Wunderground v.1.15,2013-04-28 09:36:00,
2013-04-28 02:40:00,59.9,55.7,29.99,SE,135,0.0,-999.0,86,0.00,,,0.00,Wunderground v.1.15,2013-04-28 09:40:00,
2013-04-28 02:42:00,59.9,55.4,29.99,SE,144,0.0,0.0,85,0.00,,,0.00,Wunderground v.1.15,2013-04-28 09:42:00,
2013-04-28 02:45:00,59.9,55.4,29.99,SE,135,0.0,-999.0,85,0.00,,,0.00,Wunderground v.1.15,2013-04-28 09:45:00,
2013-04-28 02:46:00,59.9,55.4,29.99,SE,144,0.0,0.0,85,0.00,,,0.00,Wunderground v.1.15,2013-04-28 09:46:00,
2013-04-28 02:48:00,59.9,55.4,29.99,SE,144,0.0,0.0,85,0.00,,,0.00,Wunderground v.1.15,2013-04-28 09:48:00,
2013-04-28 02:50:00,59.9,55.4,29.99,SE,135,0.0,-999.0,85,0.00,,,0.00,Wunderground v.1.15,2013-04-28 09:50:00,
2013-04-28 02:52:00,59.9,55.4,29.99,SE,144,0.0,0.0,85,0.00,,,0.00,Wunderground v.1.15,2013-04-28 09:52:00,
2013-04-28 02:54:00,59.9,55.4,29.99,SE,144,0.0,0.0,85,0.00,,,0.00,Wunderground v.1.15,2013-04-28 09:54:00,
2013-04-28 02:55:00,60.0,55.5,29.99,SE,135,0.0,-999.0,85,0.00,,,0.00,Wunderground v.1.15,2013-04-28 09:55:00,
2013-04-28 02:56:00,59.9,55.4,29.99,SE,144,0.0,0.0,85,0.00,,,0.00,Wunderground v.1.15,2013-04-28 09:56:00,
2013-04-28 03:00:00,60.0,55.5,29.99,SE,144,0.0,0.0,85,0.00,,,0.00,Wunderground v.1.15,2013-04-28 10:00:00,
2013-04-28 03:02:00,60.0,55.5,29.99,SE,144,0.0,0.0,85,0.00,,,0.00,Wunderground v.1.15,2013-04-28 10:02:00,
2013-04-28 03:05:00,60.0,55.5,29.99,SE,135,0.0,-999.0,85,0.00,,,0.00,Wunderground v.1.15,2013-04-28 10:05:00,
2013-04-28 03:06:00,60.0,55.5,29.99,SE,144,0.0,3.0,85,0.00,,,0.00,Wunderground v.1.15,2013-04-28 10:06:00,
2013-04-28 03:08:00,60.0,55.5,29.99,SE,144,0.0,3.0,85,0.00,,,0.00,Wunderground v.1.15,2013-04-28 10:08:00,
2013-04-28 03:10:00,60.0,55.5,29.99,SE,144,0.0,0.0,85,0.00,,,0.00,Wunderground v.1.15,2013-04-28 10:10:00,
2013-04-28 03:14:00,60.1,55.6,29.99,SE,144,0.0,0.0,85,0.00,,,0.00,Wunderground v.1.15,2013-04-28 10:14:00,
2013-04-28 03:15:00,60.0,55.5,29.99,SE,135,0.0,-999.0,85,0.00,,,0.00,Wunderground v.1.15,2013-04-28 10:15:00,
2013-04-28 03:18:00,60.0,55.5,29.99,SE,144,0.0,0.0,85,0.00,,,0.00,Wunderground v.1.15,2013-04-28 10:18:00,
2013-04-28 03:20:00,60.0,55.5,29.99,SE,144,0.0,0.0,85,0.00,,,0.00,Wunderground v.1.15,2013-04-28 10:20:00,
2013-04-28 03:24:00,60.0,55.5,29.98,SE,144,0.0,0.0,85,0.00,,,0.00,Wunderground v.1.15,2013-04-28 10:24:00,
2013-04-28 03:25:00,60.1,55.6,29.99,ESE,113,0.0,-999.0,85,0.00,,,0.00,Wunderground v.1.15,2013-04-28 10:25:00,
2013-04-28 03:26:00,60.1,55.6,29.99,SE,144,0.0,0.0,85,0.00,,,0.00,Wunderground v.1.15,2013-04-28 10:26:00,
2013-04-28 03:28:00,60.1,55.6,29.99,ESE,117,0.0,2.0,85,0.00,,,0.00,Wunderground v.1.15,2013-04-28 10:28:00,
2013-04-28 03:30:00,60.1,55.6,29.99,ESE,117,0.0,0.0,85,0.00,,,0.00,Wunderground v.1.15,2013-04-28 10:30:00,
2013-04-28 03:35:00,60.3,55.8,29.98,ESE,113,0.0,-999.0,85,0.00,,,0.00,Wunderground v.1.15,2013-04-28 10:35:00,
2013-04-28 03:36:00,60.2,55.7,29.98,ESE,117,1.0,1.0,85,0.00,,,0.00,Wunderground v.1.15,2013-04-28 10:36:00,
2013-04-28 03:38:00,60.2,55.7,29.98,ESE,117,0.0,1.0,85,0.00,,,0.00,Wunderground v.1.15,2013-04-28 10:38:00,
2013-04-28 03:40:00,60.3,55.8,29.98,ESE,117,0.0,0.0,85,0.00,,,0.00,Wunderground v.1.15,2013-04-28 10:40:00,
2013-04-28 03:42:00,60.3,55.8,29.98,ESE,117,0.0,0.0,85,0.00,,,0.00,Wunderground v.1.15,2013-04-28 10:42:00,
2013-04-28 03:44:00,60.3,55.8,29.98,ESE,117,0.0,0.0,85,0.00,,,0.00,Wunderground v.1.15,2013-04-28 10:44:00,
2013-04-28 03:45:00,60.3,55.8,29.98,ESE,113,0.0,-999.0,85,0.00,,,0.00,Wunderground v.1.15,2013-04-28 10:45:00,
2013-04-28 03:46:00,60.3,55.8,29.98,ESE,117,0.0,0.0,85,0.00,,,0.00,Wunderground v.1.15,2013-04-28 10:46:00,
2013-04-28 03:48:00,60.3,55.8,29.98,ESE,117,0.0,0.0,85,0.00,,,0.00,Wunderground v.1.15,2013-04-28 10:48:00,
2013-04-28 03:50:00,60.3,55.8,29.98,ESE,117,0.0,0.0,85,0.00,,,0.00,Wunderground v.1.15,2013-04-28 10:50:00,
2013-04-28 03:52:00,60.4,55.9,29.98,ESE,117,0.0,0.0,85,0.00,,,0.00,Wunderground v.1.15,2013-04-28 10:52:00,
2013-04-28 03:54:00,60.3,55.4,29.98,ESE,117,0.0,0.0,84,0.00,,,0.00,Wunderground v.1.15,2013-04-28 10:54:00,
2013-04-28 03:55:00,60.3,55.4,29.98,ESE,113,0.0,-999.0,84,0.00,,,0.00,Wunderground v.1.15,2013-04-28 10:55:00,
2013-04-28 03:56:00,60.4,55.5,29.98,ESE,117,0.0,2.0,84,0.00,,,0.00,Wunderground v.1.15,2013-04-28 10:56:00,
2013-04-28 03:58:00,60.3,55.4,29.98,ESE,117,0.0,2.0,84,0.00,,,0.00,Wunderground v.1.15,2013-04-28 10:58:00,
2013-04-28 04:00:00,60.3,55.4,29.98,ESE,117,0.0,0.0,84,0.00,,,0.00,Wunderground v.1.15,2013-04-28 11:00:00,
2013-04-28 04:02:00,60.3,55.4,29.98,ESE,117,0.0,0.0,84,0.00,,,0.00,Wunderground v.1.15,2013-04-28 11:02:00,
2013-04-28 04:04:00,60.3,55.4,29.98,ESE,117,0.0,1.0,84,0.00,,,0.00,Wunderground v.1.15,2013-04-28 11:04:00,
2013-04-28 04:05:00,60.3,55.4,29.98,ESE,113,0.0,-999.0,84,0.00,,,0.00,Wunderground v.1.15,2013-04-28 11:05:00,
2013-04-28 04:06:00,60.3,55.4,29.98,ESE,117,0.0,1.0,84,0.00,,,0.00,Wunderground v.1.15,2013-04-28 11:06:00,
2013-04-28 04:08:00,60.3,55.4,29.98,ESE,117,0.0,1.0,84,0.00,,,0.00,Wunderground v.1.15,2013-04-28 11:08:00,
2013-04-28 04:10:00,60.3,55.4,29.98,ESE,113,0.0,-999.0,84,0.00,,,0.00,Wunderground v.1.15,2013-04-28 11:10:00,
2013-04-28 04:12:00,60.3,55.4,29.98,ESE,115,0.0,3.0,84,0.00,,,0.00,Wunderground v.1.15,2013-04-28 11:12:00,
2013-04-28 04:14:00,60.3,55.4,29.98,ESE,115,0.0,3.0,84,0.00,,,0.00,Wunderground v.1.15,2013-04-28 11:14:00,
2013-04-28 04:15:00,60.3,55.4,29.98,ESE,113,0.0,-999.0,84,0.00,,,0.00,Wunderground v.1.15,2013-04-28 11:15:00,
2013-04-28 04:16:00,60.3,55.4,29.98,ESE,115,0.0,3.0,84,0.00,,,0.00,Wunderground v.1.15,2013-04-28 11:16:00,
2013-04-28 04:20:00,60.3,55.4,29.99,SSE,155,0.0,0.0,84,0.00,,,0.00,Wunderground v.1.15,2013-04-28 11:20:00,
2013-04-28 04:22:00,60.3,55.4,29.98,ESE,119,0.0,2.0,84,0.00,,,0.00,Wunderground v.1.15,2013-04-28 11:22:00,
2013-04-28 04:24:00,60.3,55.4,29.98,ESE,119,0.0,2.0,84,0.00,,,0.00,Wunderground v.1.15,2013-04-28 11:24:00,
2013-04-28 04:25:00,60.3,55.8,29.98,ESE,113,0.0,-999.0,85,0.00,,,0.00,Wunderground v.1.15,2013-04-28 11:25:00,
2013-04-28 04:30:00,60.2,55.7,29.98,ESE,119,0.0,0.0,85,0.00,,,0.00,Wunderground v.1.15,2013-04-28 11:30:00,
2013-04-28 04:34:00,60.3,55.8,29.98,ESE,119,0.0,0.0,85,0.00,,,0.00,Wunderground v.1.15,2013-04-28 11:34:00,
2013-04-28 04:35:00,60.3,55.8,29.98,N/A,-737280,0.0,-999.0,85,0.00,,,0.00,Wunderground v.1.15,2013-04-28 11:35:00,
2013-04-28 04:36:00,60.3,55.8,29.98,ESE,119,0.0,0.0,85,0.00,,,0.00,Wunderground v.1.15,2013-04-28 11:36:00,
2013-04-28 04:38:00,60.3,55.8,29.98,ESE,119,0.0,0.0,85,0.00,,,0.00,Wunderground v.1.15,2013-04-28 11:38:00,
2013-04-28 04:40:00,60.3,55.8,29.98,N/A,-737280,0.0,-999.0,85,0.00,,,0.00,Wunderground v.1.15,2013-04-28 11:40:00,
2013-04-28 04:42:00,60.3,55.8,29.98,ESE,119,0.0,0.0,85,0.00,,,0.00,Wunderground v.1.15,2013-04-28 11:42:00,
2013-04-28 04:45:00,60.3,55.8,29.98,ESE,113,0.0,-999.0,85,0.00,,,0.00,Wunderground v.1.15,2013-04-28 11:45:00,
2013-04-28 04:48:00,60.3,55.8,29.98,ESE,119,0.0,0.0,85,0.00,,,0.00,Wunderground v.1.15,2013-04-28 11:48:00,
2013-04-28 04:50:00,60.3,55.8,29.98,ESE,119,0.0,0.0,85,0.00,,,0.00,Wunderground v.1.15,2013-04-28 11:50:00,
2013-04-28 04:52:00,60.3,55.8,29.98,ESE,119,0.0,0.0,85,0.00,,,0.00,Wunderground v.1.15,2013-04-28 11:52:00,
2013-04-28 04:54:00,60.3,55.8,29.98,ESE,119,0.0,0.0,85,0.00,,,0.00,Wunderground v.1.15,2013-04-28 11:54:00,
2013-04-28 04:55:00,60.3,55.8,29.98,ESE,113,0.0,-999.0,85,0.00,,,0.00,Wunderground v.1.15,2013-04-28 11:55:00,
2013-04-28 04:56:00,60.3,55.8,29.98,ESE,119,0.0,2.0,85,0.00,,,0.00,Wunderground v.1.15,2013-04-28 11:56:00,
2013-04-28 05:00:00,60.3,55.8,29.98,ESE,119,0.0,0.0,85,0.00,,,0.00,Wunderground v.1.15,2013-04-28 12:00:00,
2013-04-28 05:02:00,60.3,55.8,29.98,ESE,119,0.0,0.0,85,0.00,,,0.00,Wunderground v.1.15,2013-04-28 12:02:00,
2013-04-28 05:04:00,60.2,55.7,29.98,ESE,119,0.0,0.0,85,0.00,,,0.00,Wunderground v.1.15,2013-04-28 12:04:00,
2013-04-28 05:05:00,60.2,55.7,29.98,ESE,113,0.0,-999.0,85,0.00,,,0.00,Wunderground v.1.15,2013-04-28 12:05:00,
2013-04-28 05:08:00,60.2,55.7,29.98,ESE,119,0.0,0.0,85,0.00,,,0.00,Wunderground v.1.15,2013-04-28 12:08:00,
2013-04-28 05:10:00,60.2,55.7,29.98,ESE,119,0.0,0.0,85,0.00,,,0.00,Wunderground v.1.15,2013-04-28 12:10:00,
2013-04-28 05:12:00,60.2,55.7,29.98,ESE,119,0.0,1.0,85,0.00,,,0.00,Wunderground v.1.15,2013-04-28 12:12:00,
2013-04-28 05:15:00,60.2,55.7,29.98,ESE,113,0.0,-999.0,85,0.00,,,0.00,Wunderground v.1.15,2013-04-28 12:15:00,
2013-04-28 05:18:00,60.2,55.7,29.98,ESE,119,0.0,1.0,85,0.00,,,0.00,Wunderground v.1.15,2013-04-28 12:18:00,
2013-04-28 05:20:00,60.2,55.7,29.98,ESE,119,0.0,0.0,85,0.00,,,0.00,Wunderground v.1.15,2013-04-28 12:20:00,
2013-04-28 05:22:00,60.2,55.7,29.98,ESE,119,0.0,0.0,85,0.00,,,0.00,Wunderground v.1.15,2013-04-28 12:22:00,
2013-04-28 05:25:00,60.2,55.7,29.98,ESE,113,0.0,-999.0,85,0.00,,,0.00,Wunderground v.1.15,2013-04-28 12:25:00,
2013-04-28 05:26:00,60.2,55.7,29.98,ESE,119,0.0,0.0,85,0.00,,,0.00,Wunderground v.1.15,2013-04-28 12:26:00,
2013-04-28 05:30:00,60.2,55.7,29.98,ESE,119,0.0,0.0,85,0.00,,,0.00,Wunderground v.1.15,2013-04-28 12:30:00,
2013-04-28 05:32:00,60.2,55.7,29.98,ESE,120,0.0,0.0,85,0.00,,,0.00,Wunderground v.1.15,2013-04-28 12:32:00,
2013-04-28 05:34:00,60.2,55.7,29.98,ESE,120,0.0,0.0,85,0.00,,,0.00,Wunderground v.1.15,2013-04-28 12:34:00,
2013-04-28 05:35:00,60.2,55.7,29.97,ESE,113,0.0,-999.0,85,0.00,,,0.00,Wunderground v.1.15,2013-04-28 12:35:00,
2013-04-28 05:36:00,60.2,55.7,29.98,ESE,120,0.0,0.0,85,0.00,,,0.00,Wunderground v.1.15,2013-04-28 12:36:00,
2013-04-28 05:38:00,60.2,55.7,29.98,ESE,120,0.0,0.0,85,0.00,,,0.00,Wunderground v.1.15,2013-04-28 12:38:00,
2013-04-28 05:40:00,60.2,55.7,29.97,ESE,113,0.0,-999.0,85,0.00,,,0.00,Wunderground v.1.15,2013-04-28 12:40:00,
2013-04-28 05:42:00,60.2,55.7,29.97,ESE,120,0.0,0.0,85,0.00,,,0.00,Wunderground v.1.15,2013-04-28 12:42:00,
2013-04-28 05:44:00,60.1,55.6,29.98,ESE,120,0.0,0.0,85,0.00,,,0.00,Wunderground v.1.15,2013-04-28 12:44:00,
2013-04-28 05:45:00,60.2,55.7,29.98,ESE,113,0.0,-999.0,85,0.00,,,0.00,Wunderground v.1.15,2013-04-28 12:45:00,
2013-04-28 05:48:00,60.1,55.6,29.97,ESE,120,0.0,0.0,85,0.00,,,0.00,Wunderground v.1.15,2013-04-28 12:48:00,
2013-04-28 05:50:00,60.2,55.7,29.98,ESE,113,0.0,-999.0,85,0.00,,,0.00,Wunderground v.1.15,2013-04-28 12:50:00,
2013-04-28 05:52:00,60.1,55.6,29.98,ESE,120,0.0,0.0,85,0.00,,,0.00,Wunderground v.1.15,2013-04-28 12:52:00,
2013-04-28 05:55:00,60.1,55.6,29.98,SSE,158,0.0,-999.0,85,0.00,,,0.00,Wunderground v.1.15,2013-04-28 12:55:00,
2013-04-28 05:56:00,60.1,55.6,29.98,ESE,120,0.0,0.0,85,0.00,,,0.00,Wunderground v.1.15,2013-04-28 12:56:00,
2013-04-28 05:58:00,60.1,55.6,29.98,ESE,120,0.0,0.0,85,0.00,,,0.00,Wunderground v.1.15,2013-04-28 12:58:00,
2013-04-28 06:00:00,60.1,55.6,29.98,SSE,158,0.0,-999.0,85,0.00,,,0.00,Wunderground v.1.15,2013-04-28 13:00:00,
2013-04-28 06:04:00,60.0,55.5,29.98,SSE,168,0.0,0.0,85,0.00,,,0.00,Wunderground v.1.15,2013-04-28 13:04:00,
2013-04-28 06:05:00,60.0,55.5,29.97,SSE,158,0.0,-999.0,85,0.00,,,0.00,Wunderground v.1.15,2013-04-28 13:05:00,
2013-04-28 06:06:00,60.0,55.5,29.97,SSE,168,0.0,0.0,85,0.00,,,0.00,Wunderground v.1.15,2013-04-28 13:06:00,
2013-04-28 06:10:00,60.0,55.5,29.97,SSE,168,0.0,0.0,85,0.00,,,0.00,Wunderground v.1.15,2013-04-28 13:10:00,
2013-04-28 06:12:00,60.0,55.5,29.97,SSE,168,0.0,0.0,85,0.00,,,0.00,Wunderground v.1.15,2013-04-28 13:12:00,
2013-04-28 06:14:00,60.0,55.5,29.97,SSE,168,0.0,2.0,85,0.00,,,0.00,Wunderground v.1.15,2013-04-28 13:14:00,
2013-04-28 06:15:00,60.0,55.5,29.98,SSE,158,0.0,-999.0,85,0.00,,,0.00,Wunderground v.1.15,2013-04-28 13:15:00,
2013-04-28 06:16:00,60.0,55.5,29.97,SSE,168,0.0,2.0,85,0.00,,,0.00,Wunderground v.1.15,2013-04-28 13:16:00,
2013-04-28 06:18:00,60.0,55.5,29.98,SSE,168,0.0,2.0,85,0.00,,,0.00,Wunderground v.1.15,2013-04-28 13:18:00,
2013-04-28 06:20:00,60.0,55.5,29.98,SSE,168,0.0,0.0,85,0.00,,,0.00,Wunderground v.1.15,2013-04-28 13:20:00,
2013-04-28 06:25:00,60.0,55.5,29.98,SSE,158,0.0,-999.0,85,0.00,,,0.00,Wunderground v.1.15,2013-04-28 13:25:00,
2013-04-28 06:26:00,60.0,55.5,29.98,SSE,168,0.0,1.0,85,0.00,,,0.00,Wunderground v.1.15,2013-04-28 13:26:00,
2013-04-28 06:28:00,60.0,55.5,29.98,SSE,168,0.0,1.0,85,0.00,,,0.00,Wunderground v.1.15,2013-04-28 13:28:00,
2013-04-28 06:30:00,60.0,55.5,29.98,SSE,167,0.0,1.0,85,0.00,,,0.00,Wunderground v.1.15,2013-04-28 13:30:00,
2013-04-28 06:34:00,59.9,55.4,29.98,SSE,167,0.0,1.0,85,0.00,,,0.00,Wunderground v.1.15,2013-04-28 13:34:00,
2013-04-28 06:35:00,60.0,55.5,29.98,SSE,158,0.0,-999.0,85,0.00,,,0.00,Wunderground v.1.15,2013-04-28 13:35:00,
2013-04-28 06:36:00,60.0,55.5,29.98,SSE,167,0.0,1.0,85,0.00,,,0.00,Wunderground v.1.15,2013-04-28 13:36:00,
2013-04-28 06:38:00,60.0,55.5,29.98,SSE,167,0.0,1.0,85,0.00,,,0.00,Wunderground v.1.15,2013-04-28 13:38:00,
2013-04-28 06:40:00,60.0,55.5,29.98,SSE,158,0.0,-999.0,85,0.00,,,0.00,Wunderground v.1.15,2013-04-28 13:40:00,
2013-04-28 06:42:00,60.0,55.5,29.98,SSE,167,0.0,0.0,85,0.00,,,0.00,Wunderground v.1.15,2013-04-28 13:42:00,
2013-04-28 06:44:00,60.0,55.5,29.98,SSE,167,0.0,0.0,85,0.00,,,0.00,Wunderground v.1.15,2013-04-28 13:44:00,
2013-04-28 06:45:00,60.0,55.2,29.98,SSE,158,0.0,-999.0,84,0.00,,,0.00,Wunderground v.1.15,2013-04-28 13:45:00,
2013-04-28 06:48:00,60.0,55.2,29.98,SE,128,0.0,0.0,84,0.00,,,0.00,Wunderground v.1.15,2013-04-28 13:48:00,
2013-04-28 06:50:00,60.0,55.2,29.98,SE,128,0.0,0.0,84,0.00,,,0.00,Wunderground v.1.15,2013-04-28 13:50:00,
2013-04-28 06:52:00,60.0,55.2,29.98,SE,128,0.0,0.0,84,0.00,,,0.00,Wunderground v.1.15,2013-04-28 13:52:00,
2013-04-28 06:54:00,60.0,55.2,29.98,SE,128,0.0,0.0,84,0.00,,,0.00,Wunderground v.1.15,2013-04-28 13:54:00,
2013-04-28 06:55:00,60.0,55.2,29.98,SE,135,0.0,-999.0,84,0.00,,,0.00,Wunderground v.1.15,2013-04-28 13:55:00,
2013-04-28 06:58:00,60.0,55.2,29.98,SE,128,0.0,0.0,84,0.00,,,0.00,Wunderground v.1.15,2013-04-28 13:58:00,
2013-04-28 07:00:00,60.0,55.2,29.98,SE,128,0.0,0.0,84,0.00,,,0.00,Wunderground v.1.15,2013-04-28 14:00:00,
2013-04-28 07:02:00,60.0,55.2,29.98,SE,128,0.0,0.0,84,0.00,,,0.00,Wunderground v.1.15,2013-04-28 14:02:00,
2013-04-28 07:04:00,60.0,55.5,29.98,SE,128,0.0,0.0,85,0.00,,,0.00,Wunderground v.1.15,2013-04-28 14:04:00,
2013-04-28 07:05:00,60.1,55.2,29.98,SE,135,0.0,-999.0,84,0.00,,,0.00,Wunderground v.1.15,2013-04-28 14:05:00,
2013-04-28 07:06:00,60.1,55.2,29.98,SE,128,0.0,0.0,84,0.00,,,0.00,Wunderground v.1.15,2013-04-28 14:06:00,
2013-04-28 07:08:00,60.1,55.2,29.98,SE,128,0.0,0.0,84,0.00,,,0.00,Wunderground v.1.15,2013-04-28 14:08:00,
2013-04-28 07:10:00,60.1,55.2,29.98,SE,135,0.0,-999.0,84,0.00,,,0.00,Wunderground v.1.15,2013-04-28 14:10:00,
2013-04-28 07:14:00,60.1,55.2,29.98,East,90,0.0,1.0,84,0.00,,,0.00,Wunderground v.1.15,2013-04-28 14:14:00,
2013-04-28 07:15:00,60.1,55.2,29.99,East,90,0.0,-999.0,84,0.00,,,0.00,Wunderground v.1.15,2013-04-28 14:15:00,
2013-04-28 07:18:00,60.1,55.2,29.98,East,90,1.0,1.0,84,0.00,,,0.00,Wunderground v.1.15,2013-04-28 14:18:00,
2013-04-28 07:20:00,60.1,55.2,29.99,East,90,0.0,0.0,84,0.00,,,0.00,Wunderground v.1.15,2013-04-28 14:20:00,
2013-04-28 07:24:00,60.2,55.3,29.99,East,90,0.0,0.0,84,0.00,,,0.00,Wunderground v.1.15,2013-04-28 14:24:00,
2013-04-28 07:25:00,60.2,55.3,29.99,SE,135,0.0,-999.0,84,0.00,,,0.00,Wunderground v.1.15,2013-04-28 14:25:00,
2013-04-28 07:26:00,60.2,55.3,29.99,East,90,0.0,0.0,84,0.00,,,0.00,Wunderground v.1.15,2013-04-28 14:26:00,
2013-04-28 07:30:00,60.2,55.3,29.99,SE,138,0.0,0.0,84,0.00,,,0.00,Wunderground v.1.15,2013-04-28 14:30:00,
2013-04-28 07:32:00,60.2,55.3,29.99,SE,138,0.0,0.0,84,0.00,,,0.00,Wunderground v.1.15,2013-04-28 14:32:00,
2013-04-28 07:34:00,60.3,55.4,29.99,SE,138,0.0,0.0,84,0.00,,,0.00,Wunderground v.1.15,2013-04-28 14:34:00,
2013-04-28 07:35:00,60.3,55.4,29.99,South,180,0.0,-999.0,84,0.00,,,0.00,Wunderground v.1.15,2013-04-28 14:35:00,
2013-04-28 07:36:00,60.3,55.4,29.99,South,183,0.0,0.0,84,0.00,,,0.00,Wunderground v.1.15,2013-04-28 14:36:00,
2013-04-28 07:40:00,60.3,55.4,29.99,South,180,0.0,-999.0,84,0.00,,,0.00,Wunderground v.1.15,2013-04-28 14:40:00,
2013-04-28 07:42:00,60.3,55.4,29.99,South,182,0.0,3.0,84,0.00,,,0.00,Wunderground v.1.15,2013-04-28 14:42:00,
2013-04-28 07:44:00,60.4,55.5,29.99,South,182,0.0,3.0,84,0.00,,,0.00,Wunderground v.1.15,2013-04-28 14:44:00,
2013-04-28 07:45:00,60.5,55.6,29.99,South,180,0.0,-999.0,84,0.00,,,0.00,Wunderground v.1.15,2013-04-28 14:45:00,
2013-04-28 07:48:00,60.4,55.5,29.99,South,182,0.0,3.0,84,0.00,,,0.00,Wunderground v.1.15,2013-04-28 14:48:00,
2013-04-28 07:50:00,60.5,55.6,29.99,South,182,0.0,0.0,84,0.00,,,0.00,Wunderground v.1.15,2013-04-28 14:50:00,
2013-04-28 07:52:00,60.5,55.6,29.99,South,182,0.0,0.0,84,0.00,,,0.00,Wunderground v.1.15,2013-04-28 14:52:00,
2013-04-28 07:55:00,60.5,55.3,29.99,South,180,1.0,-999.0,83,0.00,,,0.00,Wunderground v.1.15,2013-04-28 14:55:00,
2013-04-28 07:58:00,60.5,55.3,29.99,South,179,1.0,3.0,83,0.00,,,0.00,Wunderground v.1.15,2013-04-28 14:58:00,
2013-04-28 08:00:00,60.5,55.3,29.99,South,179,1.0,1.0,83,0.00,,,0.00,Wunderground v.1.15,2013-04-28 15:00:00,
2013-04-28 08:02:00,60.5,55.3,29.99,South,179,0.0,1.0,83,0.00,,,0.00,Wunderground v.1.15,2013-04-28 15:02:00,
2013-04-28 08:04:00,60.5,55.3,29.99,South,179,0.0,1.0,83,0.00,,,0.00,Wunderground v.1.15,2013-04-28 15:04:00,
2013-04-28 08:05:00,60.5,55.3,29.99,South,180,0.0,-999.0,83,0.00,,,0.00,Wunderground v.1.15,2013-04-28 15:05:00,
2013-04-28 08:06:00,60.5,55.3,29.99,South,179,0.0,1.0,83,0.00,,,0.00,Wunderground v.1.15,2013-04-28 15:06:00,
2013-04-28 08:10:00,60.5,55.3,29.99,South,179,0.0,0.0,83,0.00,,,0.00,Wunderground v.1.15,2013-04-28 15:10:00,
2013-04-28 08:12:00,60.6,55.4,29.99,South,179,0.0,0.0,83,0.00,,,0.00,Wunderground v.1.15,2013-04-28 15:12:00,
2013-04-28 08:15:00,60.8,55.6,29.99,South,180,0.0,-999.0,83,0.00,,,0.00,Wunderground v.1.15,2013-04-28 15:15:00,
2013-04-28 08:18:00,60.8,55.6,29.99,South,179,0.0,0.0,83,0.00,,,0.00,Wunderground v.1.15,2013-04-28 15:18:00,
2013-04-28 08:20:00,60.9,55.7,29.99,South,175,0.0,0.0,83,0.00,,,0.00,Wunderground v.1.15,2013-04-28 15:20:00,
2013-04-28 08:25:00,61.1,55.9,29.99,South,180,1.0,-999.0,83,0.00,,,0.00,Wunderground v.1.15,2013-04-28 15:25:00,
2013-04-28 08:26:00,61.1,55.9,29.99,South,170,0.0,1.0,83,0.00,,,0.00,Wunderground v.1.15,2013-04-28 15:26:00,
2013-04-28 08:30:00,61.1,55.9,29.99,South,180,1.0,-999.0,83,0.00,,,0.00,Wunderground v.1.15,2013-04-28 15:30:00,
2013-04-28 08:32:00,61.1,55.6,29.99,ESE,122,1.0,1.0,82,0.00,,,0.00,Wunderground v.1.15,2013-04-28 15:32:00,
2013-04-28 08:34:00,61.1,55.6,29.99,ESE,122,1.0,1.0,82,0.00,,,0.00,Wunderground v.1.15,2013-04-28 15:34:00,
2013-04-28 08:35:00,61.2,55.7,29.99,ESE,113,0.0,-999.0,82,0.00,,,0.00,Wunderground v.1.15,2013-04-28 15:35:00,
2013-04-28 08:38:00,61.2,56.0,29.99,ESE,122,0.0,1.0,83,0.00,,,0.00,Wunderground v.1.15,2013-04-28 15:38:00,
2013-04-28 08:40:00,61.2,55.7,29.99,ESE,122,0.0,2.0,82,0.00,,,0.00,Wunderground v.1.15,2013-04-28 15:40:00,
2013-04-28 08:42:00,61.3,55.8,29.99,ESE,122,0.0,2.0,82,0.00,,,0.00,Wunderground v.1.15,2013-04-28 15:42:00,
2013-04-28 08:44:00,61.3,55.8,29.98,ESE,122,0.0,2.0,82,0.00,,,0.00,Wunderground v.1.15,2013-04-28 15:44:00,
2013-04-28 08:45:00,61.5,56.0,29.98,ESE,113,0.0,-999.0,82,0.00,,,0.00,Wunderground v.1.15,2013-04-28 15:45:00,
2013-04-28 08:46:00,61.4,56.2,29.98,ESE,122,0.0,2.0,83,0.00,,,0.00,Wunderground v.1.15,2013-04-28 15:46:00,
2013-04-28 08:48:00,61.4,55.9,29.98,ESE,123,0.0,2.0,82,0.00,,,0.00,Wunderground v.1.15,2013-04-28 15:48:00,
2013-04-28 08:50:00,61.5,56.0,29.98,ESE,113,0.0,-999.0,82,0.00,,,0.00,Wunderground v.1.15,2013-04-28 15:50:00,
2013-04-28 08:52:00,61.6,56.0,29.98,ESE,123,0.0,1.0,82,0.00,,,0.00,Wunderground v.1.15,2013-04-28 15:52:00,
2013-04-28 08:54:00,61.6,56.0,29.98,ESE,123,0.0,1.0,82,0.00,,,0.00,Wunderground v.1.15,2013-04-28 15:54:00,
2013-04-28 08:55:00,61.9,56.3,29.98,ESE,113,1.0,-999.0,82,0.00,,,0.00,Wunderground v.1.15,2013-04-28 15:55:00,
2013-04-28 08:56:00,61.7,56.1,29.98,ESE,123,0.0,1.0,82,0.00,,,0.00,Wunderground v.1.15,2013-04-28 15:56:00,
2013-04-28 09:00:00,62.0,56.4,29.98,South,175,1.0,1.0,82,0.00,,,0.00,Wunderground v.1.15,2013-04-28 16:00:00,
2013-04-28 09:02:00,62.0,56.1,29.98,South,172,0.0,1.0,81,0.00,,,0.00,Wunderground v.1.15,2013-04-28 16:02:00,
2013-04-28 09:04:00,62.1,56.2,29.98,SSW,196,0.0,1.0,81,0.00,,,0.00,Wunderground v.1.15,2013-04-28 16:04:00,
2013-04-28 09:05:00,62.5,56.6,29.98,East,90,1.0,-999.0,81,0.00,,,0.00,Wunderground v.1.15,2013-04-28 16:05:00,
2013-04-28 09:08:00,62.4,56.5,29.98,East,84,1.0,3.0,81,0.00,,,0.00,Wunderground v.1.15,2013-04-28 16:08:00,
2013-04-28 09:10:00,62.5,56.6,29.98,East,90,1.0,-999.0,81,0.00,,,0.00,Wunderground v.1.15,2013-04-28 16:10:00,
2013-04-28 09:12:00,62.8,56.9,29.98,East,86,1.0,1.0,81,0.00,,,0.00,Wunderground v.1.15,2013-04-28 16:12:00,
2013-04-28 09:14:00,63.0,56.7,29.98,East,86,1.0,1.0,80,0.00,,,0.00,Wunderground v.1.15,2013-04-28 16:14:00,
2013-04-28 09:15:00,63.4,57.1,29.98,ESE,113,0.0,-999.0,80,0.00,,,0.00,Wunderground v.1.15,2013-04-28 16:15:00,
2013-04-28 09:18:00,63.3,57.0,29.98,ESE,117,0.0,1.0,80,0.00,,,0.00,Wunderground v.1.15,2013-04-28 16:18:00,
2013-04-28 09:20:00,63.5,57.2,29.98,SSE,163,0.0,2.0,80,0.00,,,0.00,Wunderground v.1.15,2013-04-28 16:20:00,
2013-04-28 09:22:00,63.5,57.2,29.98,ESE,113,1.0,2.0,80,0.00,,,0.00,Wunderground v.1.15,2013-04-28 16:22:00,
2013-04-28 09:24:00,63.6,57.0,29.98,ESE,115,1.0,2.0,79,0.00,,,0.00,Wunderground v.1.15,2013-04-28 16:24:00,
2013-04-28 09:25:00,63.8,57.2,29.98,ESE,113,1.0,-999.0,79,0.00,,,0.00,Wunderground v.1.15,2013-04-28 16:25:00,
2013-04-28 09:26:00,63.7,57.1,29.98,ESE,115,1.0,2.0,79,0.00,,,0.00,Wunderground v.1.15,2013-04-28 16:26:00,
2013-04-28 09:30:00,63.9,57.3,29.98,East,87,1.0,3.0,79,0.00,,,0.00,Wunderground v.1.15,2013-04-28 16:30:00,
2013-04-28 09:32:00,64.0,57.4,29.98,East,86,1.0,3.0,79,0.00,,,0.00,Wunderground v.1.15,2013-04-28 16:32:00,
2013-04-28 09:34:00,64.1,57.1,29.98,East,86,1.0,3.0,78,0.00,,,0.00,Wunderground v.1.15,2013-04-28 16:34:00,
2013-04-28 09:35:00,64.6,57.6,29.97,East,90,1.0,-999.0,78,0.00,,,0.00,Wunderground v.1.15,2013-04-28 16:35:00,
2013-04-28 09:38:00,64.4,57.4,29.98,East,86,1.0,3.0,78,0.00,,,0.00,Wunderground v.1.15,2013-04-28 16:38:00,
2013-04-28 09:40:00,64.7,57.7,29.98,SE,143,1.0,1.0,78,0.00,,,0.00,Wunderground v.1.15,2013-04-28 16:40:00,
2013-04-28 09:42:00,64.8,57.4,29.97,SE,144,0.0,1.0,77,0.00,,,0.00,Wunderground v.1.15,2013-04-28 16:42:00,
2013-04-28 09:45:00,65.3,57.5,29.97,SE,135,0.0,-999.0,76,0.00,,,0.00,Wunderground v.1.15,2013-04-28 16:45:00,
2013-04-28 09:46:00,65.1,57.3,29.97,SE,143,0.0,1.0,76,0.00,,,0.00,Wunderground v.1.15,2013-04-28 16:46:00,
2013-04-28 09:48:00,65.3,57.5,29.97,SE,143,0.0,1.0,76,0.00,,,0.00,Wunderground v.1.15,2013-04-28 16:48:00,
2013-04-28 09:50:00,65.3,57.5,29.97,SSE,154,0.0,0.0,76,0.00,,,0.00,Wunderground v.1.15,2013-04-28 16:50:00,
2013-04-28 09:52:00,65.4,57.6,29.97,South,179,0.0,2.0,76,0.00,,,0.00,Wunderground v.1.15,2013-04-28 16:52:00,
2013-04-28 09:54:00,65.4,57.6,29.97,South,170,0.0,2.0,76,0.00,,,0.00,Wunderground v.1.15,2013-04-28 16:54:00,
2013-04-28 09:55:00,66.1,57.9,29.97,South,180,1.0,-999.0,75,0.00,,,0.00,Wunderground v.1.15,2013-04-28 16:55:00,
2013-04-28 09:56:00,65.6,57.8,29.97,South,171,1.0,2.0,76,0.00,,,0.00,Wunderground v.1.15,2013-04-28 16:56:00,
2013-04-28 09:58:00,65.8,58.0,29.97,SSE,160,1.0,2.0,76,0.00,,,0.00,Wunderground v.1.15,2013-04-28 16:58:00,
2013-04-28 10:00:00,66.1,57.9,29.97,East,90,1.0,5.0,75,0.00,,,0.00,Wunderground v.1.15,2013-04-28 17:00:00,
2013-04-28 10:02:00,66.3,58.1,29.97,South,175,1.0,5.0,75,0.00,,,0.00,Wunderground v.1.15,2013-04-28 17:02:00,
2013-04-28 10:04:00,66.4,58.2,29.97,South,175,1.0,5.0,75,0.00,,,0.00,Wunderground v.1.15,2013-04-28 17:04:00,
2013-04-28 10:05:00,66.8,58.2,29.97,East,90,1.0,-999.0,74,0.00,,,0.00,Wunderground v.1.15,2013-04-28 17:05:00,
2013-04-28 10:06:00,66.6,58.4,29.98,SSE,167,1.0,5.0,75,0.00,,,0.00,Wunderground v.1.15,2013-04-28 17:06:00,
2013-04-28 10:10:00,66.9,58.3,29.97,SSW,211,1.0,1.0,74,0.00,,,0.00,Wunderground v.1.15,2013-04-28 17:10:00,
2013-04-28 10:14:00,67.2,58.2,29.97,SW,223,1.0,3.0,73,0.00,,,0.00,Wunderground v.1.15,2013-04-28 17:14:00,
2013-04-28 10:15:00,67.4,58.4,29.97,SW,225,1.0,-999.0,73,0.00,,,0.00,Wunderground v.1.15,2013-04-28 17:15:00,
2013-04-28 10:18:00,67.2,58.2,29.97,SW,235,1.0,3.0,73,0.00,,,0.00,Wunderground v.1.15,2013-04-28 17:18:00,
2013-04-28 10:20:00,67.5,58.5,29.97,SE,134,1.0,1.0,73,0.00,,,0.00,Wunderground v.1.15,2013-04-28 17:20:00,
2013-04-28 10:24:00,68.0,58.6,29.97,SSW,202,1.0,5.0,72,0.00,,,0.00,Wunderground v.1.15,2013-04-28 17:24:00,
2013-04-28 10:25:00,67.8,58.4,29.97,SW,225,2.0,-999.0,72,0.00,,,0.00,Wunderground v.1.15,2013-04-28 17:25:00,
2013-04-28 10:26:00,67.9,58.5,29.97,SW,229,2.0,5.0,72,0.00,,,0.00,Wunderground v.1.15,2013-04-28 17:26:00,
2013-04-28 10:28:00,67.8,58.4,29.97,WSW,242,2.0,5.0,72,0.00,,,0.00,Wunderground v.1.15,2013-04-28 17:28:00,
2013-04-28 10:30:00,67.8,58.8,29.97,SW,231,2.0,2.0,73,0.00,,,0.00,Wunderground v.1.15,2013-04-28 17:30:00,
2013-04-28 10:32:00,67.9,58.9,29.97,SW,228,2.0,5.0,73,0.00,,,0.00,Wunderground v.1.15,2013-04-28 17:32:00,
2013-04-28 10:34:00,67.7,59.1,29.97,SSW,198,2.0,5.0,74,0.00,,,0.00,Wunderground v.1.15,2013-04-28 17:34:00,
2013-04-28 10:35:00,66.9,58.7,29.97,SW,225,4.0,-999.0,75,0.00,,,0.00,Wunderground v.1.15,2013-04-28 17:35:00,
2013-04-28 10:36:00,67.4,58.8,29.97,SW,217,3.0,5.0,74,0.00,,,0.00,Wunderground v.1.15,2013-04-28 17:36:00,
2013-04-28 10:40:00,66.9,58.7,29.97,SW,225,4.0,-999.0,75,0.00,,,0.00,Wunderground v.1.15,2013-04-28 17:40:00,
2013-04-28 10:42:00,66.7,58.5,29.97,SW,229,4.0,4.0,75,0.00,,,0.00,Wunderground v.1.15,2013-04-28 17:42:00,
2013-04-28 10:44:00,66.5,58.7,29.97,South,182,4.0,4.0,76,0.00,,,0.00,Wunderground v.1.15,2013-04-28 17:44:00,
2013-04-28 10:45:00,66.4,58.6,29.97,SW,225,4.0,-999.0,76,0.00,,,0.00,Wunderground v.1.15,2013-04-28 17:45:00,
2013-04-28 10:48:00,66.4,58.6,29.97,South,176,4.0,4.0,76,0.00,,,0.00,Wunderground v.1.15,2013-04-28 17:48:00,
2013-04-28 10:50:00,66.4,59.0,29.97,SSW,197,4.0,4.0,77,0.00,,,0.00,Wunderground v.1.15,2013-04-28 17:50:00,
2013-04-28 10:54:00,66.5,58.7,29.97,WSW,239,4.0,5.0,76,0.00,,,0.00,Wunderground v.1.15,2013-04-28 17:54:00,
2013-04-28 10:55:00,66.5,59.1,29.97,SW,225,3.0,-999.0,77,0.00,,,0.00,Wunderground v.1.15,2013-04-28 17:55:00,
2013-04-28 10:56:00,66.5,59.1,29.97,SSW,201,4.0,5.0,77,0.00,,,0.00,Wunderground v.1.15,2013-04-28 17:56:00,
2013-04-28 11:00:00,66.5,58.7,29.97,South,179,3.0,4.0,76,0.00,,,0.00,Wunderground v.1.15,2013-04-28 18:00:00,
2013-04-28 11:02:00,66.5,59.1,29.97,SSW,193,3.0,4.0,77,0.00,,,0.00,Wunderground v.1.15,2013-04-28 18:02:00,
2013-04-28 11:04:00,66.5,58.7,29.97,South,175,3.0,4.0,76,0.00,,,0.00,Wunderground v.1.15,2013-04-28 18:04:00,
2013-04-28 11:05:00,66.5,58.7,29.97,SSW,203,3.0,-999.0,76,0.00,,,0.00,Wunderground v.1.15,2013-04-28 18:05:00,
2013-04-28 11:06:00,66.6,58.8,29.97,SSW,208,3.0,4.0,76,0.00,,,0.00,Wunderground v.1.15,2013-04-28 18:06:00,
2013-04-28 11:08:00,66.6,58.8,29.97,SW,219,3.0,4.0,76,0.00,,,0.00,Wunderground v.1.15,2013-04-28 18:08:00,
2013-04-28 11:10:00,66.5,58.7,29.97,SSW,203,3.0,-999.0,76,0.00,,,0.00,Wunderground v.1.15,2013-04-28 18:10:00,
2013-04-28 11:12:00,66.3,58.5,29.97,SSW,209,3.0,5.0,76,0.00,,,0.00,Wunderground v.1.15,2013-04-28 18:12:00,
2013-04-28 11:15:00,66.4,58.6,29.97,SSW,203,4.0,-999.0,76,0.00,,,0.00,Wunderground v.1.15,2013-04-28 18:15:00,
2013-04-28 11:18:00,66.3,58.5,29.97,SW,221,4.0,5.0,76,0.00,,,0.00,Wunderground v.1.15,2013-04-28 18:18:00,
2013-04-28 11:20:00,66.3,58.5,29.97,WSW,242,4.0,6.0,76,0.00,,,0.00,Wunderground v.1.15,2013-04-28 18:20:00,
2013-04-28 11:24:00,66.2,58.4,29.97,SW,218,4.0,6.0,76,0.00,,,0.00,Wunderground v.1.15,2013-04-28 18:24:00,
2013-04-28 11:25:00,66.2,58.8,29.97,SW,225,3.0,-999.0,77,0.00,,,0.00,Wunderground v.1.15,2013-04-28 18:25:00,
2013-04-28 11:26:00,66.1,58.3,29.97,SW,236,4.0,6.0,76,0.00,,,0.00,Wunderground v.1.15,2013-04-28 18:26:00,
2013-04-28 11:30:00,66.4,59.0,29.97,SSE,166,3.0,3.0,77,0.00,,,0.00,Wunderground v.1.15,2013-04-28 18:30:00,
2013-04-28 11:32:00,66.7,58.9,29.97,SSE,166,2.0,3.0,76,0.00,,,0.00,Wunderground v.1.15,2013-04-28 18:32:00,
2013-04-28 11:35:00,66.9,58.7,29.97,SSW,203,3.0,-999.0,75,0.00,,,0.00,Wunderground v.1.15,2013-04-28 18:35:00,
2013-04-28 11:36:00,66.9,58.7,29.97,SSW,210,2.0,3.0,75,0.00,,,0.00,Wunderground v.1.15,2013-04-28 18:36:00,
2013-04-28 11:38:00,66.8,58.6,29.97,SSW,205,3.0,3.0,75,0.00,,,0.00,Wunderground v.1.15,2013-04-28 18:38:00,
2013-04-28 11:40:00,66.9,58.7,29.97,SSW,203,3.0,-999.0,75,0.00,,,0.00,Wunderground v.1.15,2013-04-28 18:40:00,
2013-04-28 11:42:00,66.9,58.7,29.97,SSE,158,4.0,5.0,75,0.00,,,0.00,Wunderground v.1.15,2013-04-28 18:42:00,
2013-04-28 11:45:00,67.4,58.8,29.96,South,180,3.0,-999.0,74,0.00,,,0.00,Wunderground v.1.15,2013-04-28 18:45:00,
2013-04-28 11:46:00,67.3,59.5,29.97,SW,227,3.0,5.0,76,0.00,,,0.00,Wunderground v.1.15,2013-04-28 18:46:00,
2013-04-28 11:48:00,67.5,58.9,29.97,SSW,196,3.0,5.0,74,0.00,,,0.00,Wunderground v.1.15,2013-04-28 18:48:00,
2013-04-28 11:50:00,67.4,58.8,29.96,South,180,3.0,-999.0,74,0.00,,,0.00,Wunderground v.1.15,2013-04-28 18:50:00,
2013-04-28 11:52:00,67.4,58.8,29.97,SW,220,3.0,10.0,74,0.00,,,0.00,Wunderground v.1.15,2013-04-28 18:52:00,
2013-04-28 11:54:00,67.3,58.7,29.96,South,191,4.0,10.0,74,0.00,,,0.00,Wunderground v.1.15,2013-04-28 18:54:00,
2013-04-28 11:55:00,67.3,58.7,29.96,SSW,203,4.0,-999.0,74,0.00,,,0.00,Wunderground v.1.15,2013-04-28 18:55:00,
2013-04-28 11:56:00,67.3,58.7,29.96,SW,225,4.0,10.0,74,0.00,,,0.00,Wunderground v.1.15,2013-04-28 18:56:00,
2013-04-28 11:58:00,67.3,59.1,29.96,SW,227,4.0,10.0,75,0.00,,,0.00,Wunderground v.1.15,2013-04-28 18:58:00,
2013-04-28 12:00:00,67.3,59.1,29.96,SSW,208,4.0,5.0,75,0.00,,,0.00,Wunderground v.1.15,2013-04-28 19:00:00,
2013-04-28 12:04:00,67.3,58.7,29.96,SW,231,3.0,5.0,74,0.00,,,0.00,Wunderground v.1.15,2013-04-28 19:04:00,
2013-04-28 12:05:00,67.4,58.8,29.96,SW,225,4.0,-999.0,74,0.00,,,0.00,Wunderground v.1.15,2013-04-28 19:05:00,
2013-04-28 12:06:00,67.3,59.1,29.96,SW,222,4.0,5.0,75,0.00,,,0.00,Wunderground v.1.15,2013-04-28 19:06:00,
2013-04-28 12:08:00,67.4,58.8,29.96,South,175,4.0,5.0,74,0.00,,,0.00,Wunderground v.1.15,2013-04-28 19:08:00,
2013-04-28 12:10:00,67.4,58.8,29.95,SW,232,4.0,5.0,74,0.00,,,0.00,Wunderground v.1.15,2013-04-28 19:10:00,
2013-04-28 12:14:00,67.4,59.2,29.95,SSW,207,4.0,5.0,75,0.00,,,0.00,Wunderground v.1.15,2013-04-28 19:14:00,
2013-04-28 12:15:00,67.4,58.8,29.95,SW,225,4.0,-999.0,74,0.00,,,0.00,Wunderground v.1.15,2013-04-28 19:15:00,
2013-04-28 12:20:00,67.4,58.8,29.95,SSW,196,4.0,6.0,74,0.00,,,0.00,Wunderground v.1.15,2013-04-28 19:20:00,
2013-04-28 12:22:00,67.3,58.7,29.95,SW,219,4.0,6.0,74,0.00,,,0.00,Wunderground v.1.15,2013-04-28 19:22:00,
2013-04-28 12:24:00,67.3,59.1,29.95,SSE,156,4.0,6.0,75,0.00,,,0.00,Wunderground v.1.15,2013-04-28 19:24:00,
2013-04-28 12:25:00,67.9,59.3,29.95,SW,225,3.0,-999.0,74,0.00,,,0.00,Wunderground v.1.15,2013-04-28 19:25:00,
2013-04-28 12:26:00,67.6,59.4,29.95,SW,227,3.0,6.0,75,0.00,,,0.00,Wunderground v.1.15,2013-04-28 19:26:00,
2013-04-28 12:30:00,67.9,59.3,29.95,SW,221,3.0,5.0,74,0.00,,,0.00,Wunderground v.1.15,2013-04-28 19:30:00,
2013-04-28 12:32:00,68.0,59.4,29.95,South,180,3.0,5.0,74,0.00,,,0.00,Wunderground v.1.15,2013-04-28 19:32:00,
2013-04-28 12:35:00,67.6,59.0,29.94,SW,225,4.0,-999.0,74,0.00,,,0.00,Wunderground v.1.15,2013-04-28 19:35:00,
2013-04-28 12:36:00,67.9,58.9,29.95,SSW,209,4.0,5.0,73,0.00,,,0.00,Wunderground v.1.15,2013-04-28 19:36:00,
2013-04-28 12:40:00,67.5,58.5,29.94,South,185,4.0,5.0,73,0.00,,,0.00,Wunderground v.1.15,2013-04-28 19:40:00,
2013-04-28 12:44:00,67.5,58.9,29.94,South,171,3.0,5.0,74,0.00,,,0.00,Wunderground v.1.15,2013-04-28 19:44:00,
2013-04-28 12:45:00,67.9,58.9,29.94,South,180,3.0,-999.0,73,0.00,,,0.00,Wunderground v.1.15,2013-04-28 19:45:00,
2013-04-28 12:46:00,67.6,59.0,29.94,SSW,193,3.0,5.0,74,0.00,,,0.00,Wunderground v.1.15,2013-04-28 19:46:00,
2013-04-28 12:48:00,67.7,59.1,29.94,SSE,162,3.0,5.0,74,0.00,,,0.00,Wunderground v.1.15,2013-04-28 19:48:00,
2013-04-28 12:50:00,67.9,58.9,29.94,South,180,3.0,-999.0,73,0.00,,,0.00,Wunderground v.1.15,2013-04-28 19:50:00,
2013-04-28 12:52:00,68.0,59.4,29.94,SSW,213,3.0,5.0,74,0.00,,,0.00,Wunderground v.1.15,2013-04-28 19:52:00,
2013-04-28 12:54:00,68.1,59.1,29.94,South,183,3.0,6.0,73,0.00,,,0.00,Wunderground v.1.15,2013-04-28 19:54:00,
2013-04-28 12:55:00,68.0,59.4,29.94,SW,225,3.0,-999.0,74,0.00,,,0.00,Wunderground v.1.15,2013-04-28 19:55:00,
2013-04-28 12:56:00,68.1,59.1,29.94,SW,219,3.0,6.0,73,0.00,,,0.00,Wunderground v.1.15,2013-04-28 19:56:00,
2013-04-28 12:58:00,68.1,59.1,29.94,SW,236,3.0,6.0,73,0.00,,,0.00,Wunderground v.1.15,2013-04-28 19:58:00,
2013-04-28 13:00:00,68.0,59.0,29.94,SSW,204,3.0,7.0,73,0.00,,,0.00,Wunderground v.1.15,2013-04-28 20:00:00,
2013-04-28 13:04:00,67.7,58.7,29.93,SSW,200,3.0,7.0,73,0.00,,,0.00,Wunderground v.1.15,2013-04-28 20:04:00,
2013-04-28 13:05:00,67.9,58.9,29.94,SSW,203,4.0,-999.0,73,0.00,,,0.00,Wunderground v.1.15,2013-04-28 20:05:00,
2013-04-28 13:06:00,67.7,58.7,29.93,South,188,3.0,7.0,73,0.00,,,0.00,Wunderground v.1.15,2013-04-28 20:06:00,
2013-04-28 13:10:00,67.9,58.9,29.94,SSW,203,4.0,-999.0,73,0.00,,,0.00,Wunderground v.1.15,2013-04-28 20:10:00,
2013-04-28 13:12:00,67.9,59.3,29.93,South,175,3.0,4.0,74,0.00,,,0.00,Wunderground v.1.15,2013-04-28 20:12:00,
2013-04-28 13:14:00,68.1,59.1,29.93,SSW,195,3.0,5.0,73,0.00,,,0.00,Wunderground v.1.15,2013-04-28 20:14:00,
2013-04-28 13:15:00,68.1,59.5,29.93,South,180,3.0,-999.0,74,0.00,,,0.00,Wunderground v.1.15,2013-04-28 20:15:00,
2013-04-28 13:18:00,68.0,59.0,29.93,WSW,252,3.0,6.0,73,0.00,,,0.00,Wunderground v.1.15,2013-04-28 20:18:00,
2013-04-28 13:20:00,68.2,59.6,29.93,SSW,207,3.0,5.0,74,0.00,,,0.00,Wunderground v.1.15,2013-04-28 20:20:00,
2013-04-28 13:22:00,68.2,59.2,29.93,SSW,192,4.0,5.0,73,0.00,,,0.00,Wunderground v.1.15,2013-04-28 20:22:00,
2013-04-28 13:25:00,68.5,59.5,29.93,SSW,203,3.0,-999.0,73,0.00,,,0.00,Wunderground v.1.15,2013-04-28 20:25:00,
2013-04-28 13:28:00,68.5,59.1,29.93,SW,222,4.0,5.0,72,0.00,,,0.00,Wunderground v.1.15,2013-04-28 20:28:00,
2013-04-28 13:30:00,68.5,59.5,29.93,SSW,209,4.0,4.0,73,0.00,,,0.00,Wunderground v.1.15,2013-04-28 20:30:00,
2013-04-28 13:32:00,68.7,59.7,29.93,SSE,165,3.0,4.0,73,0.00,,,0.00,Wunderground v.1.15,2013-04-28 20:32:00,
2013-04-28 13:34:00,69.0,59.6,29.93,SSE,167,3.0,4.0,72,0.00,,,0.00,Wunderground v.1.15,2013-04-28 20:34:00,
2013-04-28 13:35:00,69.0,58.8,29.92,South,180,3.0,-999.0,70,0.00,,,0.00,Wunderground v.1.15,2013-04-28 20:35:00,
2013-04-28 13:36:00,69.3,59.9,29.92,South,190,3.0,6.0,72,0.00,,,0.00,Wunderground v.1.15,2013-04-28 20:36:00,
2013-04-28 13:38:00,69.3,59.5,29.92,South,188,2.0,7.0,71,0.00,,,0.00,Wunderground v.1.15,2013-04-28 20:38:00,
2013-04-28 13:40:00,69.0,58.8,29.92,South,180,3.0,-999.0,70,0.00,,,0.00,Wunderground v.1.15,2013-04-28 20:40:00,
2013-04-28 13:42:00,68.7,59.3,29.92,South,173,4.0,6.0,72,0.00,,,0.00,Wunderground v.1.15,2013-04-28 20:42:00,
2013-04-28 13:44:00,68.6,59.2,29.92,South,180,4.0,6.0,72,0.00,,,0.00,Wunderground v.1.15,2013-04-28 20:44:00,
2013-04-28 13:45:00,68.8,59.8,29.92,South,180,3.0,-999.0,73,0.00,,,0.00,Wunderground v.1.15,2013-04-28 20:45:00,
2013-04-28 13:48:00,68.6,59.2,29.92,SSW,196,4.0,6.0,72,0.00,,,0.00,Wunderground v.1.15,2013-04-28 20:48:00,
2013-04-28 13:50:00,68.8,59.4,29.92,SSW,194,3.0,4.0,72,0.00,,,0.00,Wunderground v.1.15,2013-04-28 20:50:00,
2013-04-28 13:54:00,68.5,59.1,29.92,SW,227,4.0,4.0,72,0.00,,,0.00,Wunderground v.1.15,2013-04-28 20:54:00,
2013-04-28 13:55:00,68.6,59.2,29.91,SW,225,4.0,-999.0,72,0.00,,,0.00,Wunderground v.1.15,2013-04-28 20:55:00,
2013-04-28 13:56:00,68.4,59.0,29.92,South,186,4.0,4.0,72,0.00,,,0.00,Wunderground v.1.15,2013-04-28 20:56:00,
2013-04-28 13:58:00,68.5,59.1,29.91,SW,225,4.0,6.0,72,0.00,,,0.00,Wunderground v.1.15,2013-04-28 20:58:00,
2013-04-28 14:00:00,68.6,59.2,29.91,SW,225,4.0,-999.0,72,0.00,,,0.00,Wunderground v.1.15,2013-04-28 21:00:00,
2013-04-28 14:04:00,68.5,59.1,29.91,WSW,247,4.0,5.0,72,0.00,,,0.00,Wunderground v.1.15,2013-04-28 21:04:00,
2013-04-28 14:05:00,68.5,59.1,29.91,SW,225,4.0,-999.0,72,0.00,,,0.00,Wunderground v.1.15,2013-04-28 21:05:00,
2013-04-28 14:06:00,68.4,59.0,29.91,SSW,208,4.0,5.0,72,0.00,,,0.00,Wunderground v.1.15,2013-04-28 21:06:00,
2013-04-28 14:10:00,68.5,59.5,29.91,SW,236,4.0,7.0,73,0.00,,,0.00,Wunderground v.1.15,2013-04-28 21:10:00,
2013-04-28 14:15:00,68.5,59.5,29.91,SW,225,4.0,-999.0,73,0.00,,,0.00,Wunderground v.1.15,2013-04-28 21:15:00,
2013-04-28 14:18:00,68.5,59.1,29.91,West,262,4.0,7.0,72,0.00,,,0.00,Wunderground v.1.15,2013-04-28 21:18:00,
2013-04-28 14:20:00,68.5,59.5,29.91,SW,225,4.0,-999.0,73,0.00,,,0.00,Wunderground v.1.15,2013-04-28 21:20:00,
2013-04-28 14:22:00,68.5,59.1,29.91,SSW,193,4.0,5.0,72,0.00,,,0.00,Wunderground v.1.15,2013-04-28 21:22:00,
2013-04-28 14:25:00,68.0,59.4,29.91,SW,225,4.0,-999.0,74,0.00,,,0.00,Wunderground v.1.15,2013-04-28 21:25:00,
2013-04-28 14:28:00,68.2,59.2,29.90,SW,228,4.0,5.0,73,0.00,,,0.00,Wunderground v.1.15,2013-04-28 21:28:00,
2013-04-28 14:30:00,68.0,59.4,29.91,SW,225,4.0,-999.0,74,0.00,,,0.00,Wunderground v.1.15,2013-04-28 21:30:00,
2013-04-28 14:32:00,68.0,59.4,29.90,SSW,212,4.0,5.0,74,0.00,,,0.00,Wunderground v.1.15,2013-04-28 21:32:00,
2013-04-28 14:34:00,68.1,59.1,29.91,SW,227,4.0,5.0,73,0.00,,,0.00,Wunderground v.1.15,2013-04-28 21:34:00,
2013-04-28 14:35:00,68.1,59.5,29.90,SW,225,4.0,-999.0,74,0.00,,,0.00,Wunderground v.1.15,2013-04-28 21:35:00,
2013-04-28 14:36:00,68.1,59.1,29.91,SW,227,4.0,6.0,73,0.00,,,0.00,Wunderground v.1.15,2013-04-28 21:36:00,
2013-04-28 14:38:00,68.0,59.0,29.90,SW,228,4.0,6.0,73,0.00,,,0.00,Wunderground v.1.15,2013-04-28 21:38:00,
2013-04-28 14:40:00,68.2,59.6,29.90,SW,231,4.0,6.0,74,0.00,,,0.00,Wunderground v.1.15,2013-04-28 21:40:00,
2013-04-28 14:42:00,68.3,59.3,29.90,SW,236,4.0,9.0,73,0.00,,,0.00,Wunderground v.1.15,2013-04-28 21:42:00,
2013-04-28 14:44:00,68.4,59.4,29.90,South,184,5.0,9.0,73,0.00,,,0.00,Wunderground v.1.15,2013-04-28 21:44:00,
2013-04-28 14:45:00,68.2,59.2,29.90,SW,225,5.0,-999.0,73,0.00,,,0.00,Wunderground v.1.15,2013-04-28 21:45:00,
2013-04-28 14:46:00,68.4,59.4,29.90,SSW,212,4.0,9.0,73,0.00,,,0.00,Wunderground v.1.15,2013-04-28 21:46:00,
2013-04-28 14:48:00,68.3,59.3,29.90,WSW,239,4.0,9.0,73,0.00,,,0.00,Wunderground v.1.15,2013-04-28 21:48:00,
2013-04-28 14:50:00,68.2,59.2,29.90,SW,225,5.0,-999.0,73,0.00,,,0.00,Wunderground v.1.15,2013-04-28 21:50:00,
2013-04-28 14:52:00,68.2,59.2,29.90,South,183,4.0,5.0,73,0.00,,,0.00,Wunderground v.1.15,2013-04-28 21:52:00,
2013-04-28 14:54:00,68.3,58.9,29.90,SW,219,4.0,5.0,72,0.00,,,0.00,Wunderground v.1.15,2013-04-28 21:54:00,
2013-04-28 14:55:00,68.0,59.0,29.89,SSW,203,4.0,-999.0,73,0.00,,,0.00,Wunderground v.1.15,2013-04-28 21:55:00,
2013-04-28 14:58:00,68.3,58.9,29.89,SW,227,4.0,8.0,72,0.00,,,0.00,Wunderground v.1.15,2013-04-28 21:58:00,
2013-04-28 15:00:00,68.0,59.4,29.89,SSW,210,4.0,4.0,74,0.00,,,0.00,Wunderground v.1.15,2013-04-28 22:00:00,
2013-04-28 15:05:00,67.7,59.1,29.89,SSW,203,5.0,-999.0,74,0.00,,,0.00,Wunderground v.1.15,2013-04-28 22:05:00,
2013-04-28 15:06:00,67.9,59.3,29.89,South,188,5.0,10.0,74,0.00,,,0.00,Wunderground v.1.15,2013-04-28 22:06:00,
2013-04-28 15:08:00,67.8,58.8,29.89,SW,216,5.0,11.0,73,0.00,,,0.00,Wunderground v.1.15,2013-04-28 22:08:00,
2013-04-28 15:10:00,67.7,59.1,29.89,SSW,203,5.0,-999.0,74,0.00,,,0.00,Wunderground v.1.15,2013-04-28 22:10:00,
2013-04-28 15:12:00,67.6,59.0,29.89,SSW,213,5.0,5.0,74,0.00,,,0.00,Wunderground v.1.15,2013-04-28 22:12:00,
2013-04-28 15:14:00,67.7,59.1,29.89,SSW,209,5.0,5.0,74,0.00,,,0.00,Wunderground v.1.15,2013-04-28 22:14:00,
2013-04-28 15:15:00,68.1,59.5,29.88,SW,225,4.0,-999.0,74,0.00,,,0.00,Wunderground v.1.15,2013-04-28 22:15:00,
2013-04-28 15:20:00,68.1,59.5,29.88,South,185,4.0,4.0,74,0.00,,,0.00,Wunderground v.1.15,2013-04-28 22:20:00,
2013-04-28 15:22:00,68.3,59.7,29.88,South,188,4.0,5.0,74,0.00,,,0.00,Wunderground v.1.15,2013-04-28 22:22:00,
2013-04-28 15:24:00,68.4,59.8,29.88,SSE,156,4.0,5.0,74,0.00,,,0.00,Wunderground v.1.15,2013-04-28 22:24:00,
2013-04-28 15:25:00,68.8,59.4,29.88,SW,225,4.0,-999.0,72,0.00,,,0.00,Wunderground v.1.15,2013-04-28 22:25:00,
2013-04-28 15:26:00,68.8,59.8,29.88,SSW,194,4.0,5.0,73,0.00,,,0.00,Wunderground v.1.15,2013-04-28 22:26:00,
2013-04-28 15:28:00,68.8,59.8,29.88,South,184,4.0,5.0,73,0.00,,,0.00,Wunderground v.1.15,2013-04-28 22:28:00,
2013-04-28 15:30:00,68.8,59.4,29.88,SW,225,4.0,-999.0,72,0.00,,,0.00,Wunderground v.1.15,2013-04-28 22:30:00,
2013-04-28 15:32:00,68.7,59.7,29.88,SW,231,4.0,7.0,73,0.00,,,0.00,Wunderground v.1.15,2013-04-28 22:32:00,
2013-04-28 15:35:00,68.8,59.8,29.88,SW,225,4.0,-999.0,73,0.00,,,0.00,Wunderground v.1.15,2013-04-28 22:35:00,
2013-04-28 15:36:00,68.5,59.5,29.88,SW,227,4.0,7.0,73,0.00,,,0.00,Wunderground v.1.15,2013-04-28 22:36:00,
2013-04-28 15:38:00,68.6,59.6,29.88,South,183,4.0,7.0,73,0.00,,,0.00,Wunderground v.1.15,2013-04-28 22:38:00,
2013-04-28 15:40:00,68.8,59.4,29.88,SSW,211,4.0,5.0,72,0.00,,,0.00,Wunderground v.1.15,2013-04-28 22:40:00,
2013-04-28 15:42:00,68.7,59.3,29.87,SW,234,4.0,8.0,72,0.00,,,0.00,Wunderground v.1.15,2013-04-28 22:42:00,
2013-04-28 15:44:00,68.7,59.7,29.87,SW,225,4.0,8.0,73,0.00,,,0.00,Wunderground v.1.15,2013-04-28 22:44:00,
2013-04-28 15:45:00,68.4,59.4,29.87,SW,225,5.0,-999.0,73,0.00,,,0.00,Wunderground v.1.15,2013-04-28 22:45:00,
2013-04-28 15:46:00,68.6,59.6,29.87,SW,220,4.0,8.0,73,0.00,,,0.00,Wunderground v.1.15,2013-04-28 22:46:00,
2013-04-28 15:48:00,68.5,59.5,29.87,SSW,210,5.0,8.0,73,0.00,,,0.00,Wunderground v.1.15,2013-04-28 22:48:00,
2013-04-28 15:50:00,68.4,59.4,29.87,SW,225,5.0,-999.0,73,0.00,,,0.00,Wunderground v.1.15,2013-04-28 22:50:00,
2013-04-28 15:52:00,68.5,59.9,29.87,South,184,4.0,6.0,74,0.00,,,0.00,Wunderground v.1.15,2013-04-28 22:52:00,
2013-04-28 15:54:00,68.8,59.8,29.87,SSW,192,4.0,6.0,73,0.00,,,0.00,Wunderground v.1.15,2013-04-28 22:54:00,
2013-04-28 15:55:00,69.6,59.8,29.86,South,180,3.0,-999.0,71,0.00,,,0.00,Wunderground v.1.15,2013-04-28 22:55:00,
2013-04-28 15:58:00,69.5,59.7,29.86,SSW,197,3.0,6.0,71,0.00,,,0.00,Wunderground v.1.15,2013-04-28 22:58:00,
2013-04-28 16:00:00,69.6,59.8,29.86,South,180,3.0,-999.0,71,0.00,,,0.00,Wunderground v.1.15,2013-04-28 23:00:00,
2013-04-28 16:02:00,69.7,59.9,29.86,SW,219,3.0,3.0,71,0.00,,,0.00,Wunderground v.1.15,2013-04-28 23:02:00,
2013-04-28 16:04:00,69.9,60.1,29.86,SSW,213,3.0,3.0,71,0.00,,,0.00,Wunderground v.1.15,2013-04-28 23:04:00,
2013-04-28 16:05:00,70.1,60.3,29.86,SSW,203,3.0,-999.0,71,0.00,,,0.00,Wunderground v.1.15,2013-04-28 23:05:00,
2013-04-28 16:06:00,70.0,59.8,29.86,SSW,196,3.0,5.0,70,0.00,,,0.00,Wunderground v.1.15,2013-04-28 23:06:00,
2013-04-28 16:08:00,69.9,60.1,29.86,WSW,245,3.0,5.0,71,0.00,,,0.00,Wunderground v.1.15,2013-04-28 23:08:00,
2013-04-28 16:10:00,70.1,60.3,29.86,SSW,213,3.0,3.0,71,0.00,,,0.00,Wunderground v.1.15,2013-04-28 23:10:00,
2013-04-28 16:15:00,71.0,60.3,29.86,South,180,2.0,-999.0,69,0.00,,,0.00,Wunderground v.1.15,2013-04-28 23:15:00,
2013-04-28 16:18:00,70.9,60.2,29.86,South,178,2.0,3.0,69,0.00,,,0.00,Wunderground v.1.15,2013-04-28 23:18:00,
2013-04-28 16:20:00,71.0,60.3,29.86,South,173,3.0,3.0,69,0.00,,,0.00,Wunderground v.1.15,2013-04-28 23:20:00,
2013-04-28 16:22:00,71.2,60.5,29.86,South,174,3.0,4.0,69,0.00,,,0.00,Wunderground v.1.15,2013-04-28 23:22:00,
2013-04-28 16:25:00,71.1,60.0,29.86,South,180,3.0,-999.0,68,0.00,,,0.00,Wunderground v.1.15,2013-04-28 23:25:00,
2013-04-28 16:28:00,71.3,60.2,29.86,South,187,3.0,9.0,68,0.00,,,0.00,Wunderground v.1.15,2013-04-28 23:28:00,
2013-04-28 16:30:00,71.0,59.9,29.86,SSW,200,4.0,6.0,68,0.00,,,0.00,Wunderground v.1.15,2013-04-28 23:30:00,
2013-04-28 16:34:00,70.5,59.8,29.86,South,185,4.0,6.0,69,0.00,,,0.00,Wunderground v.1.15,2013-04-28 23:34:00,
2013-04-28 16:35:00,70.6,60.3,29.86,SSW,203,3.0,-999.0,70,0.00,,,0.00,Wunderground v.1.15,2013-04-28 23:35:00,
2013-04-28 16:36:00,70.4,60.1,29.86,SSW,194,4.0,6.0,70,0.00,,,0.00,Wunderground v.1.15,2013-04-28 23:36:00,
2013-04-28 16:38:00,70.5,60.2,29.86,SSW,213,4.0,6.0,70,0.00,,,0.00,Wunderground v.1.15,2013-04-28 23:38:00,
2013-04-28 16:40:00,70.7,60.4,29.86,South,186,3.0,3.0,70,0.00,,,0.00,Wunderground v.1.15,2013-04-28 23:40:00,
2013-04-28 16:44:00,71.0,59.9,29.86,South,174,2.0,4.0,68,0.00,,,0.00,Wunderground v.1.15,2013-04-28 23:44:00,
2013-04-28 16:45:00,71.3,60.2,29.86,South,180,3.0,-999.0,68,0.00,,,0.00,Wunderground v.1.15,2013-04-28 23:45:00,
2013-04-28 16:50:00,71.3,60.2,29.86,WSW,244,3.0,3.0,68,0.00,,,0.00,Wunderground v.1.15,2013-04-28 23:50:00,
2013-04-28 16:52:00,71.2,60.5,29.86,WSW,240,3.0,4.0,69,0.00,,,0.00,Wunderground v.1.15,2013-04-28 23:52:00,
2013-04-28 16:55:00,71.2,60.5,29.85,SW,225,3.0,-999.0,69,0.00,,,0.00,Wunderground v.1.15,2013-04-28 23:55:00,
2013-04-28 16:56:00,71.0,60.3,29.85,SSW,195,4.0,5.0,69,0.00,,,0.00,Wunderground v.1.15,2013-04-28 23:56:00,
2013-04-28 17:00:00,71.1,60.4,29.85,SSW,207,4.0,4.0,69,0.00,,,0.00,Wunderground v.1.15,2013-04-29 00:00:00,
2013-04-28 17:02:00,71.1,60.4,29.85,SSW,212,3.0,4.0,69,0.00,,,0.00,Wunderground v.1.15,2013-04-29 00:02:00,
2013-04-28 17:05:00,71.2,60.5,29.85,SSW,203,3.0,-999.0,69,0.00,,,0.00,Wunderground v.1.15,2013-04-29 00:05:00,
2013-04-28 17:06:00,71.4,60.7,29.85,SW,223,3.0,4.0,69,0.00,,,0.00,Wunderground v.1.15,2013-04-29 00:06:00,
2013-04-28 17:10:00,71.2,60.5,29.85,SSW,203,3.0,-999.0,69,0.00,,,0.00,Wunderground v.1.15,2013-04-29 00:10:00,
2013-04-28 17:12:00,71.1,60.4,29.85,SSW,198,3.0,3.0,69,0.00,,,0.00,Wunderground v.1.15,2013-04-29 00:12:00,
2013-04-28 17:14:00,71.1,60.0,29.85,South,177,3.0,3.0,68,0.00,,,0.00,Wunderground v.1.15,2013-04-29 00:14:00,
2013-04-28 17:15:00,70.7,60.0,29.85,South,180,3.0,-999.0,69,0.00,,,0.00,Wunderground v.1.15,2013-04-29 00:15:00,
2013-04-28 17:18:00,70.7,60.4,29.85,South,183,3.0,3.0,70,0.00,,,0.00,Wunderground v.1.15,2013-04-29 00:18:00,
2013-04-28 17:20:00,70.8,60.1,29.85,South,187,3.0,3.0,69,0.00,,,0.00,Wunderground v.1.15,2013-04-29 00:20:00,
2013-04-28 17:24:00,71.0,59.9,29.85,SSW,196,2.0,5.0,68,0.00,,,0.00,Wunderground v.1.15,2013-04-29 00:24:00,
2013-04-28 17:25:00,70.8,59.7,29.85,South,180,2.0,-999.0,68,0.00,,,0.00,Wunderground v.1.15,2013-04-29 00:25:00,
2013-04-28 17:26:00,70.9,59.8,29.85,SSW,192,2.0,5.0,68,0.00,,,0.00,Wunderground v.1.15,2013-04-29 00:26:00,
2013-04-28 17:28:00,70.9,59.8,29.85,South,188,2.0,5.0,68,0.00,,,0.00,Wunderground v.1.15,2013-04-29 00:28:00,
2013-04-28 17:30:00,70.8,59.3,29.85,South,188,2.0,3.0,67,0.00,,,0.00,Wunderground v.1.15,2013-04-29 00:30:00,
2013-04-28 17:34:00,70.6,59.9,29.85,SSW,207,3.0,3.0,69,0.00,,,0.00,Wunderground v.1.15,2013-04-29 00:34:00,
2013-04-28 17:35:00,70.9,59.8,29.85,South,180,2.0,-999.0,68,0.00,,,0.00,Wunderground v.1.15,2013-04-29 00:35:00,
2013-04-28 17:36:00,70.7,60.0,29.85,South,190,2.0,3.0,69,0.00,,,0.00,Wunderground v.1.15,2013-04-29 00:36:00,
2013-04-28 17:38:00,70.8,59.7,29.85,SSE,167,2.0,3.0,68,0.00,,,0.00,Wunderground v.1.15,2013-04-29 00:38:00,
2013-04-28 17:40:00,70.9,59.8,29.85,South,180,2.0,-999.0,68,0.00,,,0.00,Wunderground v.1.15,2013-04-29 00:40:00,
2013-04-28 17:42:00,70.9,60.2,29.85,SSW,211,1.0,6.0,69,0.00,,,0.00,Wunderground v.1.15,2013-04-29 00:42:00,
2013-04-28 17:44:00,70.8,59.7,29.85,SSE,168,2.0,6.0,68,0.00,,,0.00,Wunderground v.1.15,2013-04-29 00:44:00,
2013-04-28 17:45:00,70.6,59.9,29.85,SSW,203,2.0,-999.0,69,0.00,,,0.00,Wunderground v.1.15,2013-04-29 00:45:00,
2013-04-28 17:48:00,70.8,59.7,29.85,South,178,2.0,6.0,68,0.00,,,0.00,Wunderground v.1.15,2013-04-29 00:48:00,
2013-04-28 17:50:00,70.4,59.7,29.85,SSW,193,2.0,3.0,69,0.00,,,0.00,Wunderground v.1.15,2013-04-29 00:50:00,
2013-04-28 17:52:00,70.2,60.0,29.85,SSW,202,3.0,3.0,70,0.00,,,0.00,Wunderground v.1.15,2013-04-29 00:52:00,
2013-04-28 17:55:00,69.4,59.6,29.85,SW,225,3.0,-999.0,71,0.00,,,0.00,Wunderground v.1.15,2013-04-29 00:55:00,
2013-04-28 17:58:00,69.6,59.4,29.85,WSW,242,3.0,5.0,70,0.00,,,0.00,Wunderground v.1.15,2013-04-29 00:58:00,
2013-04-28 18:00:00,69.4,59.6,29.85,SSW,211,3.0,3.0,71,0.00,,,0.00,Wunderground v.1.15,2013-04-29 01:00:00,
2013-04-28 18:05:00,69.0,59.6,29.84,SSW,203,3.0,-999.0,72,0.00,,,0.00,Wunderground v.1.15,2013-04-29 01:05:00,
2013-04-28 18:06:00,69.2,59.4,29.85,South,173,3.0,6.0,71,0.00,,,0.00,Wunderground v.1.15,2013-04-29 01:06:00,
2013-04-28 18:10:00,69.0,59.6,29.84,SSW,203,3.0,-999.0,72,0.00,,,0.00,Wunderground v.1.15,2013-04-29 01:10:00,
2013-04-28 18:12:00,69.0,59.6,29.85,South,188,2.0,3.0,72,0.00,,,0.00,Wunderground v.1.15,2013-04-29 01:12:00,
2013-04-28 18:15:00,69.1,59.7,29.85,South,180,1.0,-999.0,72,0.00,,,0.00,Wunderground v.1.15,2013-04-29 01:15:00,
2013-04-28 18:18:00,69.0,59.6,29.85,South,175,2.0,3.0,72,0.00,,,0.00,Wunderground v.1.15,2013-04-29 01:18:00,
2013-04-28 18:20:00,69.1,59.7,29.85,SSW,193,1.0,3.0,72,0.00,,,0.00,Wunderground v.1.15,2013-04-29 01:20:00,
2013-04-28 18:22:00,69.2,59.8,29.84,South,175,1.0,3.0,72,0.00,,,0.00,Wunderground v.1.15,2013-04-29 01:22:00,
2013-04-28 18:24:00,69.4,60.0,29.84,SSW,204,1.0,3.0,72,0.00,,,0.00,Wunderground v.1.15,2013-04-29 01:24:00,
2013-04-28 18:25:00,69.3,59.9,29.85,South,180,1.0,-999.0,72,0.00,,,0.00,Wunderground v.1.15,2013-04-29 01:25:00,
2013-04-28 18:26:00,69.4,60.0,29.84,South,190,1.0,3.0,72,0.00,,,0.00,Wunderground v.1.15,2013-04-29 01:26:00,
2013-04-28 18:28:00,69.4,60.0,29.84,South,188,1.0,3.0,72,0.00,,,0.00,Wunderground v.1.15,2013-04-29 01:28:00,
2013-04-28 18:30:00,69.3,59.9,29.85,WSW,240,1.0,1.0,72,0.00,,,0.00,Wunderground v.1.15,2013-04-29 01:30:00,
2013-04-28 18:32:00,69.3,59.9,29.84,WSW,240,1.0,1.0,72,0.00,,,0.00,Wunderground v.1.15,2013-04-29 01:32:00,
2013-04-28 18:34:00,69.3,59.9,29.85,SW,215,1.0,1.0,72,0.00,,,0.00,Wunderground v.1.15,2013-04-29 01:34:00,
2013-04-28 18:35:00,69.4,60.0,29.85,SW,225,0.0,-999.0,72,0.00,,,0.00,Wunderground v.1.15,2013-04-29 01:35:00,
2013-04-28 18:36:00,69.3,59.9,29.85,SW,217,1.0,1.0,72,0.00,,,0.00,Wunderground v.1.15,2013-04-29 01:36:00,
2013-04-28 18:40:00,69.4,60.0,29.85,SSW,196,1.0,1.0,72,0.00,,,0.00,Wunderground v.1.15,2013-04-29 01:40:00,
2013-04-28 18:42:00,69.4,60.0,29.85,SSW,196,1.0,1.0,72,0.00,,,0.00,Wunderground v.1.15,2013-04-29 01:42:00,
2013-04-28 18:45:00,69.1,59.7,29.85,SSW,203,1.0,-999.0,72,0.00,,,0.00,Wunderground v.1.15,2013-04-29 01:45:00,
2013-04-28 18:48:00,69.3,59.9,29.85,SSW,196,0.0,1.0,72,0.00,,,0.00,Wunderground v.1.15,2013-04-29 01:48:00,
2013-04-28 18:50:00,69.1,59.7,29.85,SW,216,1.0,4.0,72,0.00,,,0.00,Wunderground v.1.15,2013-04-29 01:50:00,
2013-04-28 18:52:00,69.0,59.6,29.85,SW,221,1.0,4.0,72,0.00,,,0.00,Wunderground v.1.15,2013-04-29 01:52:00,
2013-04-28 18:54:00,68.8,59.8,29.85,SW,221,1.0,4.0,73,0.00,,,0.00,Wunderground v.1.15,2013-04-29 01:54:00,
2013-04-28 18:55:00,68.2,59.2,29.85,SW,225,1.0,-999.0,73,0.00,,,0.00,Wunderground v.1.15,2013-04-29 01:55:00,
2013-04-28 18:56:00,68.5,59.5,29.85,SW,215,1.0,4.0,73,0.00,,,0.00,Wunderground v.1.15,2013-04-29 01:56:00,
2013-04-28 19:00:00,68.2,59.2,29.85,WSW,252,1.0,3.0,73,0.00,,,0.00,Wunderground v.1.15,2013-04-29 02:00:00,
2013-04-28 19:02:00,68.1,59.1,29.85,WSW,253,1.0,3.0,73,0.00,,,0.00,Wunderground v.1.15,2013-04-29 02:02:00,
2013-04-28 19:05:00,67.4,58.8,29.85,West,270,2.0,-999.0,74,0.00,,,0.00,Wunderground v.1.15,2013-04-29 02:05:00,
2013-04-28 19:06:00,67.8,59.2,29.85,West,279,1.0,3.0,74,0.00,,,0.00,Wunderground v.1.15,2013-04-29 02:06:00,
2013-04-28 19:08:00,67.6,59.0,29.85,West,279,1.0,3.0,74,0.00,,,0.00,Wunderground v.1.15,2013-04-29 02:08:00,
2013-04-28 19:10:00,67.4,58.8,29.85,WNW,286,1.0,1.0,74,0.00,,,0.00,Wunderground v.1.15,2013-04-29 02:10:00,
2013-04-28 19:12:00,67.2,59.0,29.85,WNW,286,2.0,2.0,75,0.00,,,0.00,Wunderground v.1.15,2013-04-29 02:12:00,
2013-04-28 19:15:00,66.3,58.5,29.85,WNW,293,2.0,-999.0,76,0.00,,,0.00,Wunderground v.1.15,2013-04-29 02:15:00,
2013-04-28 19:16:00,66.7,58.5,29.85,NW,319,1.0,2.0,75,0.00,,,0.00,Wunderground v.1.15,2013-04-29 02:16:00,
2013-04-28 19:20:00,66.3,58.5,29.85,NNW,331,2.0,2.0,76,0.00,,,0.00,Wunderground v.1.15,2013-04-29 02:20:00,
2013-04-28 19:22:00,66.1,58.3,29.85,NNW,331,1.0,2.0,76,0.00,,,0.00,Wunderground v.1.15,2013-04-29 02:22:00,
2013-04-28 19:24:00,65.9,58.1,29.85,WNW,290,1.0,2.0,76,0.00,,,0.00,Wunderground v.1.15,2013-04-29 02:24:00,
2013-04-28 19:25:00,65.4,58.0,29.85,WNW,293,1.0,-999.0,77,0.00,,,0.00,Wunderground v.1.15,2013-04-29 02:25:00,
2013-04-28 19:30:00,65.3,57.9,29.85,WNW,291,1.0,1.0,77,0.00,,,0.00,Wunderground v.1.15,2013-04-29 02:30:00,
2013-04-28 19:32:00,65.2,58.2,29.85,WNW,291,1.0,1.0,78,0.00,,,0.00,Wunderground v.1.15,2013-04-29 02:32:00,
2013-04-28 19:34:00,65.1,58.1,29.85,WNW,291,1.0,1.0,78,0.00,,,0.00,Wunderground v.1.15,2013-04-29 02:34:00,
2013-04-28 19:35:00,64.5,57.5,29.85,WNW,293,1.0,-999.0,78,0.00,,,0.00,Wunderground v.1.15,2013-04-29 02:35:00,
2013-04-28 19:36:00,64.9,57.9,29.85,WNW,292,1.0,1.0,78,0.00,,,0.00,Wunderground v.1.15,2013-04-29 02:36:00,
2013-04-28 19:38:00,64.7,57.7,29.85,WNW,291,1.0,1.0,78,0.00,,,0.00,Wunderground v.1.15,2013-04-29 02:38:00,
2013-04-28 19:40:00,64.5,57.8,29.85,WNW,291,1.0,1.0,79,0.00,,,0.00,Wunderground v.1.15,2013-04-29 02:40:00,
2013-04-28 19:45:00,63.9,57.6,29.85,WNW,293,1.0,-999.0,80,0.00,,,0.00,Wunderground v.1.15,2013-04-29 02:45:00,
2013-04-28 19:46:00,64.1,57.5,29.85,WNW,291,1.0,2.0,79,0.00,,,0.00,Wunderground v.1.15,2013-04-29 02:46:00,
2013-04-28 19:48:00,64.0,57.4,29.85,WNW,291,1.0,2.0,79,0.00,,,0.00,Wunderground v.1.15,2013-04-29 02:48:00,
2013-04-28 19:50:00,63.8,57.5,29.85,WNW,291,1.0,1.0,80,0.00,,,0.00,Wunderground v.1.15,2013-04-29 02:50:00,
2013-04-28 19:52:00,63.7,57.4,29.85,WNW,291,1.0,2.0,80,0.00,,,0.00,Wunderground v.1.15,2013-04-29 02:52:00,
2013-04-28 19:54:00,63.6,57.3,29.85,WNW,291,1.0,2.0,80,0.00,,,0.00,Wunderground v.1.15,2013-04-29 02:54:00,
2013-04-28 19:55:00,63.3,57.0,29.86,WNW,293,1.0,-999.0,80,0.00,,,0.00,Wunderground v.1.15,2013-04-29 02:55:00,
2013-04-28 19:56:00,63.5,57.2,29.86,WNW,291,1.0,2.0,80,0.00,,,0.00,Wunderground v.1.15,2013-04-29 02:56:00,
2013-04-28 19:58:00,63.4,57.1,29.86,WNW,291,1.0,2.0,80,0.00,,,0.00,Wunderground v.1.15,2013-04-29 02:58:00,
2013-04-28 20:00:00,63.3,57.0,29.86,WNW,291,1.0,1.0,80,0.00,,,0.00,Wunderground v.1.15,2013-04-29 03:00:00,
2013-04-28 20:02:00,63.2,56.9,29.86,WNW,291,1.0,2.0,80,0.00,,,0.00,Wunderground v.1.15,2013-04-29 03:02:00,
2013-04-28 20:05:00,63.0,57.1,29.86,WNW,293,1.0,-999.0,81,0.00,,,0.00,Wunderground v.1.15,2013-04-29 03:05:00,
2013-04-28 20:08:00,63.0,57.1,29.86,WNW,291,1.0,2.0,81,0.00,,,0.00,Wunderground v.1.15,2013-04-29 03:08:00,
2013-04-28 20:10:00,62.9,57.0,29.86,WNW,291,1.0,1.0,81,0.00,,,0.00,Wunderground v.1.15,2013-04-29 03:10:00,
2013-04-28 20:14:00,62.8,56.9,29.87,WNW,291,0.0,1.0,81,0.00,,,0.00,Wunderground v.1.15,2013-04-29 03:14:00,
2013-04-28 20:15:00,62.6,56.7,29.86,WNW,293,0.0,-999.0,81,0.00,,,0.00,Wunderground v.1.15,2013-04-29 03:15:00,
2013-04-28 20:18:00,62.6,56.7,29.86,WNW,291,0.0,1.0,81,0.00,,,0.00,Wunderground v.1.15,2013-04-29 03:18:00,
2013-04-28 20:20:00,62.5,56.6,29.86,WNW,291,0.0,0.0,81,0.00,,,0.00,Wunderground v.1.15,2013-04-29 03:20:00,
2013-04-28 20:22:00,62.5,56.6,29.86,WNW,291,0.0,0.0,81,0.00,,,0.00,Wunderground v.1.15,2013-04-29 03:22:00,
2013-04-28 20:24:00,62.4,56.5,29.86,WNW,291,0.0,0.0,81,0.00,,,0.00,Wunderground v.1.15,2013-04-29 03:24:00,
2013-04-28 20:25:00,62.1,56.2,29.87,WNW,293,0.0,-999.0,81,0.00,,,0.00,Wunderground v.1.15,2013-04-29 03:25:00,
2013-04-28 20:26:00,62.3,56.4,29.86,WNW,291,0.0,0.0,81,0.00,,,0.00,Wunderground v.1.15,2013-04-29 03:26:00,
2013-04-28 20:30:00,62.1,56.2,29.87,WNW,291,0.0,0.0,81,0.00,,,0.00,Wunderground v.1.15,2013-04-29 03:30:00,
2013-04-28 20:34:00,62.0,56.4,29.87,WNW,291,0.0,0.0,82,0.00,,,0.00,Wunderground v.1.15,2013-04-29 03:34:00,
2013-04-28 20:35:00,61.8,56.2,29.87,WNW,293,0.0,-999.0,82,0.00,,,0.00,Wunderground v.1.15,2013-04-29 03:35:00,
2013-04-28 20:40:00,61.8,56.2,29.87,WNW,291,0.0,0.0,82,0.00,,,0.00,Wunderground v.1.15,2013-04-29 03:40:00,
2013-04-28 20:44:00,61.8,56.2,29.87,WNW,291,0.0,0.0,82,0.00,,,0.00,Wunderground v.1.15,2013-04-29 03:44:00,
2013-04-28 20:45:00,61.6,56.0,29.87,WNW,293,0.0,-999.0,82,0.00,,,0.00,Wunderground v.1.15,2013-04-29 03:45:00,
2013-04-28 20:46:00,61.7,56.1,29.87,WNW,291,0.0,0.0,82,0.00,,,0.00,Wunderground v.1.15,2013-04-29 03:46:00,
2013-04-28 20:50:00,61.6,56.0,29.87,WNW,291,0.0,0.0,82,0.00,,,0.00,Wunderground v.1.15,2013-04-29 03:50:00,
2013-04-28 20:52:00,61.6,56.0,29.87,WNW,291,0.0,0.0,82,0.00,,,0.00,Wunderground v.1.15,2013-04-29 03:52:00,
2013-04-28 20:55:00,61.4,56.2,29.88,WNW,293,0.0,-999.0,83,0.00,,,0.00,Wunderground v.1.15,2013-04-29 03:55:00,
2013-04-28 20:58:00,61.5,56.3,29.88,WNW,291,0.0,0.0,83,0.00,,,0.00,Wunderground v.1.15,2013-04-29 03:58:00,
2013-04-28 21:00:00,61.4,56.2,29.88,WNW,291,0.0,2.0,83,0.00,,,0.00,Wunderground v.1.15,2013-04-29 04:00:00,
2013-04-28 21:02:00,61.4,56.2,29.88,WNW,291,0.0,2.0,83,0.00,,,0.00,Wunderground v.1.15,2013-04-29 04:02:00,
2013-04-28 21:05:00,61.2,56.0,29.88,WNW,293,1.0,-999.0,83,0.00,,,0.00,Wunderground v.1.15,2013-04-29 04:05:00,
2013-04-28 21:06:00,61.3,56.1,29.88,WNW,291,0.0,2.0,83,0.00,,,0.00,Wunderground v.1.15,2013-04-29 04:06:00,
2013-04-28 21:08:00,61.3,56.1,29.88,WNW,291,1.0,2.0,83,0.00,,,0.00,Wunderground v.1.15,2013-04-29 04:08:00,
2013-04-28 21:10:00,61.2,56.0,29.88,WNW,293,1.0,-999.0,83,0.00,,,0.00,Wunderground v.1.15,2013-04-29 04:10:00,
2013-04-28 21:14:00,61.1,55.9,29.88,WNW,291,0.0,1.0,83,0.00,,,0.00,Wunderground v.1.15,2013-04-29 04:14:00,
2013-04-28 21:15:00,61.1,55.9,29.88,WNW,293,0.0,-999.0,83,0.00,,,0.00,Wunderground v.1.15,2013-04-29 04:15:00,
2013-04-28 21:16:00,61.1,55.9,29.88,WNW,291,0.0,1.0,83,0.00,,,0.00,Wunderground v.1.15,2013-04-29 04:16:00,
2013-04-28 21:18:00,61.1,55.9,29.88,WNW,291,0.0,1.0,83,0.00,,,0.00,Wunderground v.1.15,2013-04-29 04:18:00,
2013-04-28 21:20:00,61.1,55.9,29.88,WNW,291,0.0,1.0,83,0.00,,,0.00,Wunderground v.1.15,2013-04-29 04:20:00,
2013-04-28 21:22:00,61.0,55.8,29.88,WNW,291,0.0,1.0,83,0.00,,,0.00,Wunderground v.1.15,2013-04-29 04:22:00,
2013-04-28 21:24:00,61.0,55.8,29.88,WNW,291,0.0,1.0,83,0.00,,,0.00,Wunderground v.1.15,2013-04-29 04:24:00,
2013-04-28 21:25:00,60.8,55.6,29.88,WNW,293,0.0,-999.0,83,0.00,,,0.00,Wunderground v.1.15,2013-04-29 04:25:00,
2013-04-28 21:28:00,60.9,55.7,29.88,WNW,291,0.0,1.0,83,0.00,,,0.00,Wunderground v.1.15,2013-04-29 04:28:00,
2013-04-28 21:30:00,60.8,55.6,29.88,WNW,291,0.0,0.0,83,0.00,,,0.00,Wunderground v.1.15,2013-04-29 04:30:00,
2013-04-28 21:32:00,60.8,55.6,29.88,WNW,291,0.0,0.0,83,0.00,,,0.00,Wunderground v.1.15,2013-04-29 04:32:00,
2013-04-28 21:34:00,60.8,55.9,29.88,WNW,291,0.0,1.0,84,0.00,,,0.00,Wunderground v.1.15,2013-04-29 04:34:00,
2013-04-28 21:35:00,60.6,55.7,29.88,WNW,293,0.0,-999.0,84,0.00,,,0.00,Wunderground v.1.15,2013-04-29 04:35:00,
2013-04-28 21:38:00,60.7,55.8,29.88,WNW,291,0.0,1.0,84,0.00,,,0.00,Wunderground v.1.15,2013-04-29 04:38:00,
2013-04-28 21:40:00,60.5,55.6,29.88,WNW,291,0.0,0.0,84,0.00,,,0.00,Wunderground v.1.15,2013-04-29 04:40:00,
2013-04-28 21:42:00,60.5,55.6,29.88,WNW,291,0.0,0.0,84,0.00,,,0.00,Wunderground v.1.15,2013-04-29 04:42:00,
2013-04-28 21:44:00,60.5,55.6,29.88,WNW,291,0.0,1.0,84,0.00,,,0.00,Wunderground v.1.15,2013-04-29 04:44:00,
2013-04-28 21:45:00,60.3,55.4,29.88,WNW,293,0.0,-999.0,84,0.00,,,0.00,Wunderground v.1.15,2013-04-29 04:45:00,
2013-04-28 21:46:00,60.4,55.5,29.88,WNW,291,0.0,1.0,84,0.00,,,0.00,Wunderground v.1.15,2013-04-29 04:46:00,
2013-04-28 21:50:00,60.2,55.3,29.88,WNW,291,0.0,0.0,84,0.00,,,0.00,Wunderground v.1.15,2013-04-29 04:50:00,
2013-04-28 21:52:00,60.2,55.3,29.88,WNW,291,0.0,0.0,84,0.00,,,0.00,Wunderground v.1.15,2013-04-29 04:52:00,
2013-04-28 21:54:00,60.1,55.2,29.89,WNW,291,0.0,0.0,84,0.00,,,0.00,Wunderground v.1.15,2013-04-29 04:54:00,
2013-04-28 21:55:00,60.0,55.2,29.89,WNW,293,0.0,-999.0,84,0.00,,,0.00,Wunderground v.1.15,2013-04-29 04:55:00,
2013-04-28 22:00:00,60.0,55.2,29.89,WNW,291,0.0,0.0,84,0.00,,,0.00,Wunderground v.1.15,2013-04-29 05:00:00,
2013-04-28 22:02:00,59.9,55.1,29.89,WNW,291,0.0,0.0,84,0.00,,,0.00,Wunderground v.1.15,2013-04-29 05:02:00,
2013-04-28 22:04:00,59.9,55.1,29.89,WNW,291,0.0,0.0,84,0.00,,,0.00,Wunderground v.1.15,2013-04-29 05:04:00,
2013-04-28 22:05:00,59.7,54.9,29.89,N/A,-737280,0.0,-999.0,84,0.00,,,0.00,Wunderground v.1.15,2013-04-29 05:05:00,
2013-04-28 22:06:00,59.8,55.0,29.89,WNW,291,0.0,0.0,84,0.00,,,0.00,Wunderground v.1.15,2013-04-29 05:06:00,
2013-04-28 22:10:00,59.7,54.9,29.89,WNW,291,0.0,0.0,84,0.00,,,0.00,Wunderground v.1.15,2013-04-29 05:10:00,
2013-04-28 22:12:00,59.6,54.8,29.89,WNW,291,0.0,0.0,84,0.00,,,0.00,Wunderground v.1.15,2013-04-29 05:12:00,
2013-04-28 22:14:00,59.6,54.8,29.90,WNW,291,0.0,0.0,84,0.00,,,0.00,Wunderground v.1.15,2013-04-29 05:14:00,
2013-04-28 22:15:00,59.4,54.9,29.89,N/A,-737280,0.0,-999.0,85,0.00,,,0.00,Wunderground v.1.15,2013-04-29 05:15:00,
2013-04-28 22:16:00,59.5,54.7,29.89,WNW,291,0.0,0.0,84,0.00,,,0.00,Wunderground v.1.15,2013-04-29 05:16:00,
2013-04-28 22:20:00,59.4,54.9,29.89,WNW,291,0.0,0.0,85,0.00,,,0.00,Wunderground v.1.15,2013-04-29 05:20:00,
2013-04-28 22:22:00,59.4,54.9,29.89,WNW,291,0.0,0.0,85,0.00,,,0.00,Wunderground v.1.15,2013-04-29 05:22:00,
2013-04-28 22:24:00,59.3,54.8,29.89,WNW,291,0.0,0.0,85,0.00,,,0.00,Wunderground v.1.15,2013-04-29 05:24:00,
2013-04-28 22:25:00,59.3,54.8,29.89,WNW,293,0.0,-999.0,85,0.00,,,0.00,Wunderground v.1.15,2013-04-29 05:25:00,
2013-04-28 22:28:00,59.3,54.8,29.89,WNW,291,0.0,0.0,85,0.00,,,0.00,Wunderground v.1.15,2013-04-29 05:28:00,
2013-04-28 22:30:00,59.3,54.8,29.89,WNW,291,0.0,0.0,85,0.00,,,0.00,Wunderground v.1.15,2013-04-29 05:30:00,
2013-04-28 22:32:00,59.3,54.8,29.89,WNW,291,0.0,0.0,85,0.00,,,0.00,Wunderground v.1.15,2013-04-29 05:32:00,
2013-04-28 22:34:00,59.5,55.3,29.89,WNW,291,0.0,1.0,86,0.00,,,0.00,Wunderground v.1.15,2013-04-29 05:34:00,
2013-04-28 22:35:00,59.8,55.6,29.89,SSW,203,1.0,-999.0,86,0.00,,,0.00,Wunderground v.1.15,2013-04-29 05:35:00,
2013-04-28 22:36:00,59.6,55.4,29.89,SSW,205,0.0,2.0,86,0.00,,,0.00,Wunderground v.1.15,2013-04-29 05:36:00,
2013-04-28 22:40:00,59.9,55.7,29.89,SSW,199,1.0,2.0,86,0.00,,,0.00,Wunderground v.1.15,2013-04-29 05:40:00,
2013-04-28 22:42:00,59.8,55.6,29.89,SSW,194,2.0,2.0,86,0.00,,,0.00,Wunderground v.1.15,2013-04-29 05:42:00,
2013-04-28 22:45:00,59.7,55.5,29.89,SSW,203,2.0,-999.0,86,0.00,,,0.00,Wunderground v.1.15,2013-04-29 05:45:00,
2013-04-28 22:46:00,59.8,55.6,29.89,SSW,192,2.0,2.0,86,0.00,,,0.00,Wunderground v.1.15,2013-04-29 05:46:00,
2013-04-28 22:48:00,59.8,55.6,29.89,SSW,192,2.0,2.0,86,0.00,,,0.00,Wunderground v.1.15,2013-04-29 05:48:00,
2013-04-28 22:50:00,59.7,55.5,29.89,SSW,203,2.0,-999.0,86,0.00,,,0.00,Wunderground v.1.15,2013-04-29 05:50:00,
2013-04-28 22:52:00,59.7,55.8,29.89,South,185,2.0,3.0,87,0.00,,,0.00,Wunderground v.1.15,2013-04-29 05:52:00,
2013-04-28 22:54:00,59.6,55.4,29.89,WSW,238,2.0,3.0,86,0.00,,,0.00,Wunderground v.1.15,2013-04-29 05:54:00,
2013-04-28 22:55:00,59.6,55.7,29.89,WSW,248,1.0,-999.0,87,0.00,,,0.00,Wunderground v.1.15,2013-04-29 05:55:00,
2013-04-28 22:56:00,59.6,55.7,29.89,WSW,238,2.0,3.0,87,0.00,,,0.00,Wunderground v.1.15,2013-04-29 05:56:00,
2013-04-28 23:00:00,59.6,55.7,29.89,South,181,1.0,2.0,87,0.00,,,0.00,Wunderground v.1.15,2013-04-29 06:00:00,
2013-04-28 23:04:00,59.6,55.7,29.90,SSE,157,1.0,2.0,87,0.00,,,0.00,Wunderground v.1.15,2013-04-29 06:04:00,
2013-04-28 23:05:00,59.4,55.5,29.90,SSE,158,1.0,-999.0,87,0.00,,,0.00,Wunderground v.1.15,2013-04-29 06:05:00,
2013-04-28 23:06:00,59.5,55.6,29.90,SSE,157,1.0,2.0,87,0.00,,,0.00,Wunderground v.1.15,2013-04-29 06:06:00,
2013-04-28 23:08:00,59.5,55.6,29.90,SSE,157,1.0,2.0,87,0.00,,,0.00,Wunderground v.1.15,2013-04-29 06:08:00,
2013-04-28 23:10:00,59.4,55.5,29.90,SSE,157,0.0,0.0,87,0.00,,,0.00,Wunderground v.1.15,2013-04-29 06:10:00,
2013-04-28 23:15:00,59.2,55.3,29.90,SSE,158,1.0,-999.0,87,0.00,,,0.00,Wunderground v.1.15,2013-04-29 06:15:00,
2013-04-28 23:16:00,59.3,55.4,29.90,SSE,156,0.0,1.0,87,0.00,,,0.00,Wunderground v.1.15,2013-04-29 06:16:00,
2013-04-28 23:18:00,59.3,55.4,29.90,SSE,156,0.0,1.0,87,0.00,,,0.00,Wunderground v.1.15,2013-04-29 06:18:00,
2013-04-28 23:20:00,59.2,55.3,29.90,South,171,1.0,1.0,87,0.00,,,0.00,Wunderground v.1.15,2013-04-29 06:20:00,
2013-04-28 23:22:00,59.2,55.3,29.90,SE,126,1.0,1.0,87,0.00,,,0.00,Wunderground v.1.15,2013-04-29 06:22:00,
2013-04-28 23:25:00,59.1,55.2,29.90,SE,135,1.0,-999.0,87,0.00,,,0.00,Wunderground v.1.15,2013-04-29 06:25:00,
2013-04-28 23:28:00,59.1,55.2,29.90,SE,134,1.0,1.0,87,0.00,,,0.00,Wunderground v.1.15,2013-04-29 06:28:00,
2013-04-28 23:30:00,59.1,55.2,29.90,SSE,149,1.0,1.0,87,0.00,,,0.00,Wunderground v.1.15,2013-04-29 06:30:00,
2013-04-28 23:34:00,59.1,55.2,29.90,SSE,149,1.0,1.0,87,0.00,,,0.00,Wunderground v.1.15,2013-04-29 06:34:00,
2013-04-28 23:35:00,59.1,55.2,29.90,SSE,158,0.0,-999.0,87,0.00,,,0.00,Wunderground v.1.15,2013-04-29 06:35:00,
2013-04-28 23:36:00,59.1,55.2,29.90,SSE,149,1.0,1.0,87,0.00,,,0.00,Wunderground v.1.15,2013-04-29 06:36:00,
2013-04-28 23:38:00,59.1,55.2,29.90,SSE,148,1.0,1.0,87,0.00,,,0.00,Wunderground v.1.15,2013-04-29 06:38:00,
2013-04-28 23:40:00,59.1,55.2,29.90,SSE,148,0.0,0.0,87,0.00,,,0.00,Wunderground v.1.15,2013-04-29 06:40:00,
2013-04-28 23:44:00,59.0,55.1,29.90,ESE,114,1.0,3.0,87,0.00,,,0.00,Wunderground v.1.15,2013-04-29 06:44:00,
2013-04-28 23:45:00,59.0,55.1,29.90,ESE,113,1.0,-999.0,87,0.00,,,0.00,Wunderground v.1.15,2013-04-29 06:45:00,
2013-04-28 23:46:00,59.0,55.1,29.90,ESE,114,0.0,3.0,87,0.00,,,0.00,Wunderground v.1.15,2013-04-29 06:46:00,
2013-04-28 23:48:00,59.0,55.1,29.90,ESE,114,0.0,3.0,87,0.00,,,0.00,Wunderground v.1.15,2013-04-29 06:48:00,
2013-04-28 23:50:00,59.0,55.1,29.90,ESE,109,1.0,1.0,87,0.00,,,0.00,Wunderground v.1.15,2013-04-29 06:50:00,
2013-04-28 23:54:00,59.0,55.1,29.90,ESE,107,1.0,2.0,87,0.00,,,0.00,Wunderground v.1.15,2013-04-29 06:54:00,
2013-04-28 23:55:00,59.0,55.1,29.90,ESE,113,1.0,-999.0,87,0.00,,,0.00,Wunderground v.1.15,2013-04-29 06:55:00,
2013-04-28 23:56:00,59.0,55.1,29.90,ESE,107,1.0,2.0,87,0.00,,,0.00,Wunderground v.1.15,2013-04-29 06:56:00,
2013-04-28 23:58:00,59.0,55.1,29.90,ESE,107,1.0,2.0,87,0.00,,,0.00,Wunderground v.1.15,2013-04-29 06:58:00,